Time,TemperatureF,DewpointF,PressureIn,WindDirection,WindDirectionDegrees,WindSpeedMPH,WindSpeedGustMPH,Humidity,HourlyPrecipIn,Conditions,Clouds,dailyrainin,SoftwareType,DateUTC
2013-02-16 00:02:00,19.6,0.7,0.00,SSE,149,0.0,0.0,43,0.00,,---,0.00,VWS V14.00,2013-02-16 07:02:00,
2013-02-16 00:04:00,19.6,0.7,0.00,SE,143,0.0,0.0,43,0.00,,---,0.00,VWS V14.00,2013-02-16 07:04:00,
2013-02-16 00:07:00,19.4,1.1,0.00,WNW,294,2.2,2.7,44,0.00,,---,0.00,VWS V14.00,2013-02-16 07:07:00,
2013-02-16 00:09:00,19.4,1.1,0.00,WNW,288,0.0,0.0,44,0.00,,---,0.00,VWS V14.00,2013-02-16 07:09:00,
2013-02-16 00:12:00,19.4,1.1,0.00,NW,326,3.1,5.8,44,0.00,,---,0.00,VWS V14.00,2013-02-16 07:12:00,
2013-02-16 00:14:00,19.4,1.1,0.00,East,98,3.1,4.0,44,0.00,,---,0.00,VWS V14.00,2013-02-16 07:14:00,
2013-02-16 00:17:00,19.4,1.1,0.00,North,9,2.7,2.7,44,0.00,,---,0.00,VWS V14.00,2013-02-16 07:17:00,
2013-02-16 00:19:00,19.4,1.1,0.00,ESE,113,3.1,4.0,44,0.00,,---,0.00,VWS V14.00,2013-02-16 07:19:00,
2013-02-16 00:22:00,19.2,0.9,0.00,East,79,0.0,0.0,44,0.00,,---,0.00,VWS V14.00,2013-02-16 07:22:00,
2013-02-16 00:24:00,19.2,0.9,0.00,WNW,298,3.1,3.1,44,0.00,,---,0.00,VWS V14.00,2013-02-16 07:24:00,
2013-02-16 00:27:00,19.2,0.9,0.00,WNW,298,0.0,0.0,44,0.00,,---,0.00,VWS V14.00,2013-02-16 07:27:00,
2013-02-16 00:29:00,19.2,0.9,0.00,NW,312,2.7,2.7,44,0.00,,---,0.00,VWS V14.00,2013-02-16 07:29:00,
2013-02-16 00:32:00,19.2,0.9,0.00,South,188,0.0,2.2,44,0.00,,---,0.00,VWS V14.00,2013-02-16 07:32:00,
2013-02-16 00:35:00,19.2,0.9,0.00,NW,318,0.0,3.1,44,0.00,,---,0.00,VWS V14.00,2013-02-16 07:35:00,
2013-02-16 00:37:00,19.2,0.9,0.00,West,279,0.0,0.0,44,0.00,,---,0.00,VWS V14.00,2013-02-16 07:37:00,
2013-02-16 00:38:00,19.2,0.9,0.00,West,280,0.0,0.0,44,0.00,,---,0.00,VWS V14.00,2013-02-16 07:38:00,
2013-02-16 00:40:00,19.2,0.9,0.00,West,267,0.0,0.0,44,0.00,,---,0.00,VWS V14.00,2013-02-16 07:40:00,
2013-02-16 00:42:00,19.2,0.9,0.00,West,268,0.0,0.0,44,0.00,,---,0.00,VWS V14.00,2013-02-16 07:42:00,
2013-02-16 00:43:00,19.2,0.9,0.00,West,267,0.0,0.0,44,0.00,,---,0.00,VWS V14.00,2013-02-16 07:43:00,
2013-02-16 00:45:00,19.2,0.9,0.00,ESE,123,0.0,4.0,44,0.00,,---,0.00,VWS V14.00,2013-02-16 07:45:00,
2013-02-16 00:47:00,19.0,0.7,0.00,WSW,252,0.0,0.0,44,0.00,,---,0.00,VWS V14.00,2013-02-16 07:47:00,
2013-02-16 00:48:00,19.0,0.7,0.00,WSW,246,0.0,0.0,44,0.00,,---,0.00,VWS V14.00,2013-02-16 07:48:00,
2013-02-16 00:50:00,19.0,0.7,0.00,WNW,287,0.0,4.0,44,0.00,,---,0.00,VWS V14.00,2013-02-16 07:50:00,
2013-02-16 00:52:00,19.0,0.7,0.00,WNW,288,0.0,0.0,44,0.00,,---,0.00,VWS V14.00,2013-02-16 07:52:00,
2013-02-16 00:53:00,19.0,0.7,0.00,West,279,0.0,0.0,44,0.00,,---,0.00,VWS V14.00,2013-02-16 07:53:00,
2013-02-16 00:55:00,19.0,0.7,0.00,WNW,289,0.0,2.7,44,0.00,,---,0.00,VWS V14.00,2013-02-16 07:55:00,
2013-02-16 00:58:00,19.0,0.7,0.00,WNW,293,0.0,3.1,44,0.00,,---,0.00,VWS V14.00,2013-02-16 07:58:00,
2013-02-16 01:00:00,19.0,0.7,0.00,WSW,251,0.0,2.7,44,0.00,,---,0.00,VWS V14.00,2013-02-16 08:00:00,
2013-02-16 01:03:00,19.0,0.7,0.00,WSW,250,0.0,0.0,44,0.00,,---,0.00,VWS V14.00,2013-02-16 08:03:00,
2013-02-16 01:05:00,19.0,0.7,0.00,ESE,122,3.6,3.6,44,0.00,,---,0.00,VWS V14.00,2013-02-16 08:05:00,
2013-02-16 01:08:00,19.0,0.7,0.00,WNW,288,0.0,0.0,44,0.00,,---,0.00,VWS V14.00,2013-02-16 08:08:00,
2013-02-16 01:10:00,19.0,0.7,0.00,WNW,288,0.0,0.0,44,0.00,,---,0.00,VWS V14.00,2013-02-16 08:10:00,
2013-02-16 01:13:00,19.0,0.7,0.00,WNW,299,0.0,3.1,44,0.00,,---,0.00,VWS V14.00,2013-02-16 08:13:00,
2013-02-16 01:15:00,19.0,0.7,0.00,WNW,286,0.0,0.0,44,0.00,,---,0.00,VWS V14.00,2013-02-16 08:15:00,
2013-02-16 01:18:00,19.0,0.7,0.00,WSW,254,2.2,2.7,44,0.00,,---,0.00,VWS V14.00,2013-02-16 08:18:00,
2013-02-16 01:20:00,19.0,0.7,0.00,WNW,302,2.7,4.0,44,0.00,,---,0.00,VWS V14.00,2013-02-16 08:20:00,
2013-02-16 01:23:00,19.0,0.7,0.00,WNW,302,0.0,0.0,44,0.00,,---,0.00,VWS V14.00,2013-02-16 08:23:00,
2013-02-16 01:24:00,19.0,0.7,0.00,WNW,301,0.0,0.0,44,0.00,,---,0.00,VWS V14.00,2013-02-16 08:24:00,
2013-02-16 01:26:00,19.0,0.7,0.00,WNW,302,0.0,0.0,44,0.00,,---,0.00,VWS V14.00,2013-02-16 08:26:00,
2013-02-16 01:28:00,19.0,0.7,0.00,WNW,301,0.0,0.0,44,0.00,,---,0.00,VWS V14.00,2013-02-16 08:28:00,
2013-02-16 01:29:00,19.0,0.7,0.00,WNW,297,0.0,0.0,44,0.00,,---,0.00,VWS V14.00,2013-02-16 08:29:00,
2013-02-16 01:31:00,19.0,0.7,0.00,West,279,0.0,0.0,44,0.00,,---,0.00,VWS V14.00,2013-02-16 08:31:00,
2013-02-16 01:33:00,19.0,0.7,0.00,WNW,286,0.0,0.0,44,0.00,,---,0.00,VWS V14.00,2013-02-16 08:33:00,
2013-02-16 01:36:00,19.0,0.7,0.00,WNW,286,0.0,0.0,44,0.00,,---,0.00,VWS V14.00,2013-02-16 08:36:00,
2013-02-16 01:38:00,19.0,0.7,0.00,WSW,251,0.0,0.0,44,0.00,,---,0.00,VWS V14.00,2013-02-16 08:38:00,
2013-02-16 01:39:00,19.0,0.7,0.00,WSW,252,0.0,0.0,44,0.00,,---,0.00,VWS V14.00,2013-02-16 08:39:00,
2013-02-16 01:41:00,19.0,0.7,0.00,WSW,252,0.0,0.0,44,0.00,,---,0.00,VWS V14.00,2013-02-16 08:41:00,
2013-02-16 01:43:00,18.9,0.6,0.00,West,264,0.0,0.0,44,0.00,,---,0.00,VWS V14.00,2013-02-16 08:43:00,
2013-02-16 01:44:00,18.9,0.6,0.00,WNW,283,0.0,0.0,44,0.00,,---,0.00,VWS V14.00,2013-02-16 08:44:00,
2013-02-16 01:46:00,18.9,0.6,0.00,WNW,295,0.0,4.0,44,0.00,,---,0.00,VWS V14.00,2013-02-16 08:46:00,
2013-02-16 01:48:00,18.9,0.6,0.00,WNW,300,0.0,0.0,44,0.00,,---,0.00,VWS V14.00,2013-02-16 08:48:00,
2013-02-16 01:49:00,18.9,0.6,0.00,WNW,299,0.0,0.0,44,0.00,,---,0.00,VWS V14.00,2013-02-16 08:49:00,
2013-02-16 01:51:00,18.7,0.4,0.00,WNW,299,0.0,0.0,44,0.00,,---,0.00,VWS V14.00,2013-02-16 08:51:00,
2013-02-16 01:53:00,18.7,0.4,0.00,WNW,299,0.0,0.0,44,0.00,,---,0.00,VWS V14.00,2013-02-16 08:53:00,
2013-02-16 01:54:00,18.7,0.4,0.00,WNW,299,0.0,0.0,44,0.00,,---,0.00,VWS V14.00,2013-02-16 08:54:00,
2013-02-16 01:56:00,18.7,0.4,0.00,WNW,297,3.6,3.6,44,0.00,,---,0.00,VWS V14.00,2013-02-16 08:56:00,
2013-02-16 01:58:00,18.7,0.4,0.00,WNW,303,0.0,2.7,44,0.00,,---,0.00,VWS V14.00,2013-02-16 08:58:00,
2013-02-16 01:59:00,18.7,0.4,0.00,NW,325,2.7,2.7,44,0.00,,---,0.00,VWS V14.00,2013-02-16 08:59:00,
2013-02-16 02:01:00,18.7,0.4,0.00,NW,314,0.0,3.1,44,0.00,,---,0.00,VWS V14.00,2013-02-16 09:01:00,
2013-02-16 02:03:00,18.9,0.6,0.00,WNW,301,0.0,3.1,44,0.00,,---,0.00,VWS V14.00,2013-02-16 09:03:00,
2013-02-16 02:04:00,18.9,0.6,0.00,WNW,301,0.0,0.0,44,0.00,,---,0.00,VWS V14.00,2013-02-16 09:04:00,
2013-02-16 02:06:00,18.9,0.6,0.00,WSW,247,3.6,3.6,44,0.00,,---,0.00,VWS V14.00,2013-02-16 09:06:00,
2013-02-16 02:09:00,18.9,0.6,0.00,West,264,0.0,3.1,44,0.00,,---,0.00,VWS V14.00,2013-02-16 09:09:00,
2013-02-16 02:12:00,18.9,0.6,0.00,WSW,255,2.7,2.7,44,0.00,,---,0.00,VWS V14.00,2013-02-16 09:12:00,
2013-02-16 02:14:00,19.0,0.7,0.00,SSW,192,0.0,3.1,44,0.00,,---,0.00,VWS V14.00,2013-02-16 09:14:00,
2013-02-16 02:17:00,19.2,0.9,0.00,East,79,4.0,4.0,44,0.00,,---,0.00,VWS V14.00,2013-02-16 09:17:00,
2013-02-16 02:19:00,19.2,0.9,0.00,SSE,164,3.6,3.6,44,0.00,,---,0.00,VWS V14.00,2013-02-16 09:19:00,
2013-02-16 02:22:00,19.2,0.9,0.00,ESE,104,4.0,5.8,44,0.00,,---,0.00,VWS V14.00,2013-02-16 09:22:00,
2013-02-16 02:24:00,19.4,1.1,0.00,ESE,114,3.6,3.6,44,0.00,,---,0.00,VWS V14.00,2013-02-16 09:24:00,
2013-02-16 02:27:00,19.4,1.1,0.00,East,86,4.0,5.8,44,0.00,,---,0.00,VWS V14.00,2013-02-16 09:27:00,
2013-02-16 02:29:00,19.4,1.1,0.00,NE,49,3.6,4.0,44,0.00,,---,0.00,VWS V14.00,2013-02-16 09:29:00,
2013-02-16 02:32:00,19.6,1.2,0.00,East,92,5.4,7.6,44,0.00,,---,0.00,VWS V14.00,2013-02-16 09:32:00,
2013-02-16 02:34:00,19.6,1.2,0.00,ENE,65,8.7,8.7,44,0.00,,---,0.00,VWS V14.00,2013-02-16 09:34:00,
2013-02-16 02:35:00,19.6,1.2,0.00,East,83,6.3,8.7,44,0.00,,---,0.00,VWS V14.00,2013-02-16 09:35:00,
2013-02-16 02:37:00,19.6,1.2,0.00,SSW,196,4.0,4.0,44,0.00,,---,0.00,VWS V14.00,2013-02-16 09:37:00,
2013-02-16 02:39:00,19.6,1.2,0.00,NE,56,6.3,11.0,44,0.00,,---,0.00,VWS V14.00,2013-02-16 09:39:00,
2013-02-16 02:40:00,19.6,1.2,0.00,NE,54,2.7,11.0,44,0.00,,---,0.00,VWS V14.00,2013-02-16 09:40:00,
2013-02-16 02:42:00,19.6,1.2,0.00,East,100,3.6,4.0,44,0.00,,---,0.00,VWS V14.00,2013-02-16 09:42:00,
2013-02-16 02:44:00,19.6,1.2,0.00,ENE,75,4.0,4.0,44,0.00,,---,0.00,VWS V14.00,2013-02-16 09:44:00,
2013-02-16 02:45:00,19.6,1.2,0.00,East,101,3.1,3.1,44,0.00,,---,0.00,VWS V14.00,2013-02-16 09:45:00,
2013-02-16 02:47:00,19.6,1.2,0.00,East,84,3.6,3.6,44,0.00,,---,0.00,VWS V14.00,2013-02-16 09:47:00,
2013-02-16 02:49:00,19.6,1.2,0.00,East,86,2.2,3.6,44,0.00,,---,0.00,VWS V14.00,2013-02-16 09:49:00,
2013-02-16 02:50:00,19.6,1.2,0.00,ENE,76,4.0,4.0,44,0.00,,---,0.00,VWS V14.00,2013-02-16 09:50:00,
2013-02-16 02:52:00,19.6,1.2,0.00,East,88,3.1,3.1,44,0.00,,---,0.00,VWS V14.00,2013-02-16 09:52:00,
2013-02-16 02:54:00,19.6,1.2,0.00,South,184,2.2,3.1,44,0.00,,---,0.00,VWS V14.00,2013-02-16 09:54:00,
2013-02-16 02:55:00,19.6,1.2,0.00,WNW,303,0.0,0.0,44,0.00,,---,0.00,VWS V14.00,2013-02-16 09:55:00,
2013-02-16 02:57:00,19.6,1.2,0.00,East,92,3.1,3.6,44,0.00,,---,0.00,VWS V14.00,2013-02-16 09:57:00,
2013-02-16 02:59:00,19.6,1.2,0.00,SE,124,3.6,4.5,44,0.00,,---,0.00,VWS V14.00,2013-02-16 09:59:00,
2013-02-16 03:00:00,19.6,1.2,0.00,SE,129,5.8,5.8,44,0.00,,---,0.00,VWS V14.00,2013-02-16 10:00:00,
2013-02-16 03:02:00,19.6,1.2,0.00,SSE,167,0.0,2.2,44,0.00,,---,0.00,VWS V14.00,2013-02-16 10:02:00,
2013-02-16 03:04:00,19.6,1.2,0.00,ESE,106,4.5,4.5,44,0.00,,---,0.00,VWS V14.00,2013-02-16 10:04:00,
2013-02-16 03:05:00,19.6,1.2,0.00,ESE,123,3.1,4.5,44,0.00,,---,0.00,VWS V14.00,2013-02-16 10:05:00,
2013-02-16 03:07:00,19.6,1.2,0.00,ESE,110,0.0,2.7,44,0.00,,---,0.00,VWS V14.00,2013-02-16 10:07:00,
2013-02-16 03:09:00,19.6,1.2,0.00,East,91,0.0,4.9,44,0.00,,---,0.00,VWS V14.00,2013-02-16 10:09:00,
2013-02-16 03:10:00,19.6,1.2,0.00,South,169,0.0,2.7,44,0.00,,---,0.00,VWS V14.00,2013-02-16 10:10:00,
2013-02-16 03:11:00,19.6,1.2,0.00,ESE,106,2.2,4.0,44,0.00,,---,0.00,VWS V14.00,2013-02-16 10:11:00,
2013-02-16 03:12:00,19.6,1.2,0.00,ENE,71,2.2,4.9,44,0.00,,---,0.00,VWS V14.00,2013-02-16 10:12:00,
2013-02-16 03:14:00,19.6,1.2,0.00,ENE,58,3.6,4.0,44,0.00,,---,0.00,VWS V14.00,2013-02-16 10:14:00,
2013-02-16 03:15:00,19.6,1.2,0.00,ENE,58,0.0,3.6,44,0.00,,---,0.00,VWS V14.00,2013-02-16 10:15:00,
2013-02-16 03:16:00,19.4,1.5,0.00,ENE,71,3.1,3.1,45,0.00,,---,0.00,VWS V14.00,2013-02-16 10:16:00,
2013-02-16 03:17:00,19.4,1.5,0.00,ESE,118,3.1,3.6,45,0.00,,---,0.00,VWS V14.00,2013-02-16 10:17:00,
2013-02-16 03:19:00,19.4,1.5,0.00,ESE,120,3.1,3.6,45,0.00,,---,0.00,VWS V14.00,2013-02-16 10:19:00,
2013-02-16 03:20:00,19.4,1.5,0.00,ESE,122,0.0,2.7,45,0.00,,---,0.00,VWS V14.00,2013-02-16 10:20:00,
2013-02-16 03:21:00,19.4,1.5,0.00,ESE,122,0.0,0.0,45,0.00,,---,0.00,VWS V14.00,2013-02-16 10:21:00,
2013-02-16 03:22:00,19.4,1.5,0.00,ESE,122,0.0,0.0,45,0.00,,---,0.00,VWS V14.00,2013-02-16 10:22:00,
2013-02-16 03:24:00,19.4,1.5,0.00,ESE,122,0.0,0.0,45,0.00,,---,0.00,VWS V14.00,2013-02-16 10:24:00,
2013-02-16 03:25:00,19.4,1.5,0.00,ESE,119,0.0,0.0,45,0.00,,---,0.00,VWS V14.00,2013-02-16 10:25:00,
2013-02-16 03:26:00,19.4,1.5,0.00,ESE,122,0.0,0.0,45,0.00,,---,0.00,VWS V14.00,2013-02-16 10:26:00,
2013-02-16 03:28:00,19.4,1.5,0.00,SW,236,0.0,0.0,45,0.00,,---,0.00,VWS V14.00,2013-02-16 10:28:00,
2013-02-16 03:30:00,19.4,1.5,0.00,SW,228,0.0,0.0,45,0.00,,---,0.00,VWS V14.00,2013-02-16 10:30:00,
2013-02-16 03:32:00,19.4,1.5,0.00,SSW,195,0.0,2.2,45,0.00,,---,0.00,VWS V14.00,2013-02-16 10:32:00,
2013-02-16 03:33:00,19.4,1.5,0.00,SE,130,3.6,4.0,45,0.00,,---,0.00,VWS V14.00,2013-02-16 10:33:00,
2013-02-16 03:35:00,19.4,1.5,0.00,East,100,0.0,3.1,45,0.00,,---,0.00,VWS V14.00,2013-02-16 10:35:00,
2013-02-16 03:37:00,19.2,1.4,0.00,ESE,114,3.6,3.6,45,0.00,,---,0.00,VWS V14.00,2013-02-16 10:37:00,
2013-02-16 03:38:00,19.2,1.4,0.00,SE,142,0.0,4.0,45,0.00,,---,0.00,VWS V14.00,2013-02-16 10:38:00,
2013-02-16 03:40:00,19.2,1.4,0.00,East,87,2.2,3.6,45,0.00,,---,0.00,VWS V14.00,2013-02-16 10:40:00,
2013-02-16 03:42:00,19.2,1.4,0.00,SSE,147,4.0,4.0,45,0.00,,---,0.00,VWS V14.00,2013-02-16 10:42:00,
2013-02-16 03:43:00,19.2,1.4,0.00,East,82,0.0,0.0,45,0.00,,---,0.00,VWS V14.00,2013-02-16 10:43:00,
2013-02-16 03:45:00,19.2,1.4,0.00,South,184,0.0,5.8,45,0.00,,---,0.00,VWS V14.00,2013-02-16 10:45:00,
2013-02-16 03:46:00,19.2,1.4,0.00,South,179,2.7,2.7,45,0.00,,---,0.00,VWS V14.00,2013-02-16 10:46:00,
2013-02-16 03:47:00,19.2,1.4,0.00,SSE,158,2.7,2.7,45,0.00,,---,0.00,VWS V14.00,2013-02-16 10:47:00,
2013-02-16 03:48:00,19.2,1.4,0.00,East,92,6.3,6.3,45,0.00,,---,0.00,VWS V14.00,2013-02-16 10:48:00,
2013-02-16 03:50:00,19.2,1.4,0.00,East,94,2.7,4.0,45,0.00,,---,0.00,VWS V14.00,2013-02-16 10:50:00,
2013-02-16 03:51:00,19.2,1.4,0.00,East,89,3.6,3.6,45,0.00,,---,0.00,VWS V14.00,2013-02-16 10:51:00,
2013-02-16 03:52:00,19.2,1.4,0.00,SSE,154,3.6,5.4,45,0.00,,---,0.00,VWS V14.00,2013-02-16 10:52:00,
2013-02-16 03:53:00,19.0,1.2,0.00,SSE,163,2.2,3.6,45,0.00,,---,0.00,VWS V14.00,2013-02-16 10:53:00,
2013-02-16 03:55:00,19.0,1.2,0.00,SSE,165,0.0,0.0,45,0.00,,---,0.00,VWS V14.00,2013-02-16 10:55:00,
2013-02-16 03:56:00,19.0,1.2,0.00,SE,142,0.0,4.9,45,0.00,,---,0.00,VWS V14.00,2013-02-16 10:56:00,
2013-02-16 03:57:00,19.0,1.2,0.00,SSW,198,0.0,0.0,45,0.00,,---,0.00,VWS V14.00,2013-02-16 10:57:00,
2013-02-16 03:58:00,19.0,1.2,0.00,East,80,3.1,3.1,45,0.00,,---,0.00,VWS V14.00,2013-02-16 10:58:00,
2013-02-16 04:00:00,19.0,1.2,0.00,South,169,0.0,2.7,45,0.00,,---,0.00,VWS V14.00,2013-02-16 11:00:00,
2013-02-16 04:01:00,19.0,1.2,0.00,SW,232,0.0,0.0,45,0.00,,---,0.00,VWS V14.00,2013-02-16 11:01:00,
2013-02-16 04:02:00,19.0,1.2,0.00,SW,234,0.0,0.0,45,0.00,,---,0.00,VWS V14.00,2013-02-16 11:02:00,
2013-02-16 04:03:00,19.0,1.2,0.00,SSW,213,2.7,3.1,45,0.00,,---,0.00,VWS V14.00,2013-02-16 11:03:00,
2013-02-16 04:05:00,19.0,1.2,0.00,SSE,158,3.1,3.1,45,0.00,,---,0.00,VWS V14.00,2013-02-16 11:05:00,
2013-02-16 04:06:00,19.0,1.2,0.00,SSE,168,0.0,0.0,45,0.00,,---,0.00,VWS V14.00,2013-02-16 11:06:00,
2013-02-16 04:07:00,19.0,1.2,0.00,South,187,0.0,0.0,45,0.00,,---,0.00,VWS V14.00,2013-02-16 11:07:00,
2013-02-16 04:08:00,19.0,1.2,0.00,SSW,193,0.0,0.0,45,0.00,,---,0.00,VWS V14.00,2013-02-16 11:08:00,
2013-02-16 04:10:00,18.9,1.0,0.00,WNW,303,3.6,3.6,45,0.00,,---,0.00,VWS V14.00,2013-02-16 11:10:00,
2013-02-16 04:11:00,18.9,1.0,0.00,WNW,303,0.0,2.7,45,0.00,,---,0.00,VWS V14.00,2013-02-16 11:11:00,
2013-02-16 04:12:00,18.9,1.0,0.00,WNW,288,0.0,0.0,45,0.00,,---,0.00,VWS V14.00,2013-02-16 11:12:00,
2013-02-16 04:13:00,18.7,0.9,0.00,WNW,294,0.0,0.0,45,0.00,,---,0.00,VWS V14.00,2013-02-16 11:13:00,
2013-02-16 04:15:00,18.7,0.9,0.00,WNW,298,0.0,0.0,45,0.00,,---,0.00,VWS V14.00,2013-02-16 11:15:00,
2013-02-16 04:16:00,18.7,0.9,0.00,WNW,299,0.0,0.0,45,0.00,,---,0.00,VWS V14.00,2013-02-16 11:16:00,
2013-02-16 04:17:00,18.7,0.9,0.00,WNW,298,2.7,3.1,45,0.00,,---,0.00,VWS V14.00,2013-02-16 11:17:00,
2013-02-16 04:19:00,18.7,0.9,0.00,WNW,298,0.0,0.0,45,0.00,,---,0.00,VWS V14.00,2013-02-16 11:19:00,
2013-02-16 04:20:00,18.5,0.7,0.00,WNW,297,0.0,0.0,45,0.00,,---,0.00,VWS V14.00,2013-02-16 11:20:00,
2013-02-16 04:21:00,18.5,0.7,0.00,WNW,284,0.0,0.0,45,0.00,,---,0.00,VWS V14.00,2013-02-16 11:21:00,
2013-02-16 04:22:00,18.5,0.7,0.00,WNW,286,0.0,0.0,45,0.00,,---,0.00,VWS V14.00,2013-02-16 11:22:00,
2013-02-16 04:24:00,18.5,0.7,0.00,WNW,285,0.0,0.0,45,0.00,,---,0.00,VWS V14.00,2013-02-16 11:24:00,
2013-02-16 04:25:00,18.5,0.7,0.00,WNW,285,0.0,0.0,45,0.00,,---,0.00,VWS V14.00,2013-02-16 11:25:00,
2013-02-16 04:27:00,18.5,0.7,0.00,WNW,285,0.0,0.0,45,0.00,,---,0.00,VWS V14.00,2013-02-16 11:27:00,
2013-02-16 04:29:00,18.3,0.6,0.00,SW,217,0.0,0.0,45,0.00,,---,0.00,VWS V14.00,2013-02-16 11:29:00,
2013-02-16 04:30:00,18.3,0.6,0.00,WSW,253,0.0,0.0,45,0.00,,---,0.00,VWS V14.00,2013-02-16 11:30:00,
2013-02-16 04:32:00,18.3,0.6,0.00,WSW,253,0.0,2.2,45,0.00,,---,0.00,VWS V14.00,2013-02-16 11:32:00,
2013-02-16 04:33:00,18.3,0.6,0.00,WSW,254,0.0,0.0,45,0.00,,---,0.00,VWS V14.00,2013-02-16 11:33:00,
2013-02-16 04:34:00,18.3,0.6,0.00,WSW,254,0.0,0.0,45,0.00,,---,0.00,VWS V14.00,2013-02-16 11:34:00,
2013-02-16 04:35:00,18.3,0.6,0.00,WSW,253,0.0,0.0,45,0.00,,---,0.00,VWS V14.00,2013-02-16 11:35:00,
2013-02-16 04:37:00,18.1,0.4,0.00,WSW,249,0.0,0.0,45,0.00,,---,0.00,VWS V14.00,2013-02-16 11:37:00,
2013-02-16 04:38:00,18.1,0.4,0.00,NW,305,0.0,0.0,45,0.00,,---,0.00,VWS V14.00,2013-02-16 11:38:00,
2013-02-16 04:39:00,18.1,0.4,0.00,East,94,3.6,3.6,45,0.00,,---,0.00,VWS V14.00,2013-02-16 11:39:00,
2013-02-16 04:40:00,18.1,0.4,0.00,North,9,2.2,4.9,45,0.00,,---,0.00,VWS V14.00,2013-02-16 11:40:00,
2013-02-16 04:42:00,18.1,0.4,0.00,WNW,287,0.0,0.0,45,0.00,,---,0.00,VWS V14.00,2013-02-16 11:42:00,
2013-02-16 04:43:00,18.1,0.4,0.00,SSE,155,0.0,0.0,45,0.00,,---,0.00,VWS V14.00,2013-02-16 11:43:00,
2013-02-16 04:44:00,18.0,0.2,0.00,South,176,0.0,0.0,45,0.00,,---,0.00,VWS V14.00,2013-02-16 11:44:00,
2013-02-16 04:45:00,18.0,0.2,0.00,NW,310,3.6,3.6,45,0.00,,---,0.00,VWS V14.00,2013-02-16 11:45:00,
2013-02-16 04:47:00,18.0,0.2,0.00,NW,314,0.0,3.6,45,0.00,,---,0.00,VWS V14.00,2013-02-16 11:47:00,
2013-02-16 04:48:00,18.0,0.2,0.00,NW,313,0.0,0.0,45,0.00,,---,0.00,VWS V14.00,2013-02-16 11:48:00,
2013-02-16 04:49:00,18.0,0.2,0.00,SE,131,5.8,5.8,45,0.00,,---,0.00,VWS V14.00,2013-02-16 11:49:00,
2013-02-16 04:50:00,18.0,0.2,0.00,SE,142,5.4,7.6,45,0.00,,---,0.00,VWS V14.00,2013-02-16 11:50:00,
2013-02-16 04:52:00,18.0,0.2,0.00,SSE,153,3.6,5.8,45,0.00,,---,0.00,VWS V14.00,2013-02-16 11:52:00,
2013-02-16 04:53:00,18.0,0.2,0.00,SSE,155,0.0,0.0,45,0.00,,---,0.00,VWS V14.00,2013-02-16 11:53:00,
2013-02-16 04:54:00,18.0,0.2,0.00,WNW,291,2.2,2.2,45,0.00,,---,0.00,VWS V14.00,2013-02-16 11:54:00,
2013-02-16 04:55:00,17.8,0.1,0.00,WNW,300,2.2,4.0,45,0.00,,---,0.00,VWS V14.00,2013-02-16 11:55:00,
2013-02-16 04:57:00,17.8,0.1,0.00,SE,127,2.7,2.7,45,0.00,,---,0.00,VWS V14.00,2013-02-16 11:57:00,
2013-02-16 04:58:00,17.8,0.1,0.00,SE,127,0.0,2.7,45,0.00,,---,0.00,VWS V14.00,2013-02-16 11:58:00,
2013-02-16 05:00:00,17.8,0.1,0.00,SE,127,0.0,0.0,45,0.00,,---,0.00,VWS V14.00,2013-02-16 12:00:00,
2013-02-16 05:03:00,17.8,0.1,0.00,ESE,112,3.1,4.0,45,0.00,,---,0.00,VWS V14.00,2013-02-16 12:03:00,
2013-02-16 05:05:00,17.8,0.1,0.00,East,92,0.0,4.0,45,0.00,,---,0.00,VWS V14.00,2013-02-16 12:05:00,
2013-02-16 05:06:00,17.8,0.1,0.00,ESE,109,2.7,3.1,45,0.00,,---,0.00,VWS V14.00,2013-02-16 12:06:00,
2013-02-16 05:08:00,17.8,0.1,0.00,ESE,106,0.0,0.0,45,0.00,,---,0.00,VWS V14.00,2013-02-16 12:08:00,
2013-02-16 05:10:00,17.8,0.1,0.00,ESE,106,0.0,0.0,45,0.00,,---,0.00,VWS V14.00,2013-02-16 12:10:00,
2013-02-16 05:11:00,17.8,0.1,0.00,ESE,106,0.0,0.0,45,0.00,,---,0.00,VWS V14.00,2013-02-16 12:11:00,
2013-02-16 05:13:00,17.6,-0.1,0.00,NE,49,2.2,2.2,45,0.00,,---,0.00,VWS V14.00,2013-02-16 12:13:00,
2013-02-16 05:15:00,17.6,-0.1,0.00,SE,125,2.7,5.8,45,0.00,,---,0.00,VWS V14.00,2013-02-16 12:15:00,
2013-02-16 05:16:00,17.6,-0.1,0.00,SE,129,7.6,7.6,45,0.00,,---,0.00,VWS V14.00,2013-02-16 12:16:00,
2013-02-16 05:18:00,17.6,-0.1,0.00,SSW,203,2.7,2.7,45,0.00,,---,0.00,VWS V14.00,2013-02-16 12:18:00,
2013-02-16 05:20:00,17.6,-0.1,0.00,SE,131,4.0,4.9,45,0.00,,---,0.00,VWS V14.00,2013-02-16 12:20:00,
2013-02-16 05:21:00,17.6,-0.1,0.00,East,98,2.7,2.7,45,0.00,,---,0.00,VWS V14.00,2013-02-16 12:21:00,
2013-02-16 05:23:00,17.6,-0.1,0.00,SSE,165,0.0,0.0,45,0.00,,---,0.00,VWS V14.00,2013-02-16 12:23:00,
2013-02-16 05:25:00,17.6,-0.1,0.00,SSW,204,0.0,2.2,45,0.00,,---,0.00,VWS V14.00,2013-02-16 12:25:00,
2013-02-16 05:26:00,17.6,-0.1,0.00,SSW,213,0.0,0.0,45,0.00,,---,0.00,VWS V14.00,2013-02-16 12:26:00,
2013-02-16 05:28:00,17.8,0.1,0.00,South,170,2.7,2.7,45,0.00,,---,0.00,VWS V14.00,2013-02-16 12:28:00,
2013-02-16 05:30:00,17.8,0.1,0.00,East,82,5.4,5.4,45,0.00,,---,0.00,VWS V14.00,2013-02-16 12:30:00,
2013-02-16 05:31:00,17.8,0.1,0.00,SW,215,3.1,3.1,45,0.00,,---,0.00,VWS V14.00,2013-02-16 12:31:00,
2013-02-16 05:33:00,18.0,0.2,0.00,West,262,0.0,2.7,45,0.00,,---,0.00,VWS V14.00,2013-02-16 12:33:00,
2013-02-16 05:34:00,18.1,0.4,0.00,NE,48,5.4,5.4,45,0.00,,---,0.00,VWS V14.00,2013-02-16 12:34:00,
2013-02-16 05:35:00,18.1,0.4,0.00,East,98,6.3,6.3,45,0.00,,---,0.00,VWS V14.00,2013-02-16 12:35:00,
2013-02-16 05:36:00,18.1,0.4,0.00,ENE,74,4.0,4.0,45,0.00,,---,0.00,VWS V14.00,2013-02-16 12:36:00,
2013-02-16 05:38:00,18.3,0.6,0.00,SE,133,0.0,4.9,45,0.00,,---,0.00,VWS V14.00,2013-02-16 12:38:00,
2013-02-16 05:39:00,18.3,0.6,0.00,ESE,123,4.9,4.9,45,0.00,,---,0.00,VWS V14.00,2013-02-16 12:39:00,
2013-02-16 05:40:00,18.3,0.6,0.00,SW,229,2.2,2.2,45,0.00,,---,0.00,VWS V14.00,2013-02-16 12:40:00,
2013-02-16 05:41:00,18.3,0.6,0.00,SE,127,0.0,3.6,45,0.00,,---,0.00,VWS V14.00,2013-02-16 12:41:00,
2013-02-16 05:43:00,18.3,0.6,0.00,WNW,291,0.0,2.2,45,0.00,,---,0.00,VWS V14.00,2013-02-16 12:43:00,
2013-02-16 05:44:00,18.5,0.7,0.00,NW,310,5.4,5.4,45,0.00,,---,0.00,VWS V14.00,2013-02-16 12:44:00,
2013-02-16 05:45:00,18.5,0.7,0.00,NNW,330,0.0,2.7,45,0.00,,---,0.00,VWS V14.00,2013-02-16 12:45:00,
2013-02-16 05:46:00,18.5,0.7,0.00,SSE,161,3.1,3.1,45,0.00,,---,0.00,VWS V14.00,2013-02-16 12:46:00,
2013-02-16 05:48:00,18.5,0.7,0.00,SSE,149,5.8,5.8,45,0.00,,---,0.00,VWS V14.00,2013-02-16 12:48:00,
2013-02-16 05:49:00,18.5,0.7,0.00,WNW,287,3.6,3.6,45,0.00,,---,0.00,VWS V14.00,2013-02-16 12:49:00,
2013-02-16 05:50:00,18.7,0.9,0.00,WSW,242,0.0,0.0,45,0.00,,---,0.00,VWS V14.00,2013-02-16 12:50:00,
2013-02-16 05:51:00,18.7,0.9,0.00,NW,317,0.0,3.1,45,0.00,,---,0.00,VWS V14.00,2013-02-16 12:51:00,
2013-02-16 05:53:00,18.7,0.9,0.00,NW,306,3.1,3.1,45,0.00,,---,0.00,VWS V14.00,2013-02-16 12:53:00,
2013-02-16 05:54:00,18.7,0.9,0.00,NW,308,0.0,0.0,45,0.00,,---,0.00,VWS V14.00,2013-02-16 12:54:00,
2013-02-16 05:55:00,18.9,1.0,0.00,WNW,298,3.6,3.6,45,0.00,,---,0.00,VWS V14.00,2013-02-16 12:55:00,
2013-02-16 05:56:00,19.0,1.2,0.00,WSW,252,0.0,3.1,45,0.00,,---,0.00,VWS V14.00,2013-02-16 12:56:00,
2013-02-16 05:59:00,19.0,1.2,0.00,SSW,213,2.2,10.5,45,0.00,,---,0.00,VWS V14.00,2013-02-16 12:59:00,
2013-02-16 06:00:00,19.4,1.5,0.00,SE,125,3.1,4.9,45,0.00,,---,0.00,VWS V14.00,2013-02-16 13:00:00,
2013-02-16 06:01:00,19.4,1.5,0.00,SE,130,5.8,5.8,45,0.00,,---,0.00,VWS V14.00,2013-02-16 13:01:00,
2013-02-16 06:04:00,19.8,1.4,0.00,SE,133,3.1,12.8,44,0.00,,---,0.00,VWS V14.00,2013-02-16 13:04:00,
2013-02-16 06:05:00,19.9,1.5,0.00,SSE,162,8.3,16.3,44,0.00,,---,0.00,VWS V14.00,2013-02-16 13:05:00,
2013-02-16 06:06:00,20.3,1.9,0.00,SE,133,12.3,12.3,44,0.00,,---,0.00,VWS V14.00,2013-02-16 13:06:00,
2013-02-16 06:09:00,20.7,2.2,0.00,SW,233,2.7,2.7,44,0.00,,---,0.00,VWS V14.00,2013-02-16 13:09:00,
2013-02-16 06:10:00,20.8,2.4,0.00,SE,136,4.0,4.0,44,0.00,,---,0.00,VWS V14.00,2013-02-16 13:10:00,
2013-02-16 06:11:00,21.0,2.5,0.00,ESE,120,6.3,6.3,44,0.00,,---,0.00,VWS V14.00,2013-02-16 13:11:00,
2013-02-16 06:14:00,21.4,2.4,0.00,ESE,105,2.7,3.1,43,0.00,,---,0.00,VWS V14.00,2013-02-16 13:14:00,
2013-02-16 06:16:00,21.6,2.5,0.00,WNW,303,2.7,3.1,43,0.00,,---,0.00,VWS V14.00,2013-02-16 13:16:00,
2013-02-16 06:19:00,21.9,2.9,0.00,ENE,77,2.2,2.2,43,0.00,,---,0.00,VWS V14.00,2013-02-16 13:19:00,
2013-02-16 06:21:00,21.9,2.9,0.00,NNW,327,0.0,4.0,43,0.00,,---,0.00,VWS V14.00,2013-02-16 13:21:00,
2013-02-16 06:22:00,21.9,2.9,0.00,WNW,299,2.7,2.7,43,0.00,,---,0.00,VWS V14.00,2013-02-16 13:22:00,
2013-02-16 06:24:00,21.9,2.9,0.00,SSE,162,3.1,5.8,43,0.00,,---,0.00,VWS V14.00,2013-02-16 13:24:00,
2013-02-16 06:25:00,21.9,2.9,0.00,SSE,162,3.1,5.8,43,0.00,,---,0.00,VWS V14.00,2013-02-16 13:25:00,
2013-02-16 06:26:00,22.1,3.0,0.00,West,262,3.1,4.0,43,0.00,,---,0.00,VWS V14.00,2013-02-16 13:26:00,
2013-02-16 06:27:00,22.1,3.0,0.00,SW,226,0.0,0.0,43,0.00,,---,0.00,VWS V14.00,2013-02-16 13:27:00,
2013-02-16 06:29:00,22.1,3.0,0.00,WSW,251,0.0,0.0,43,0.00,,---,0.00,VWS V14.00,2013-02-16 13:29:00,
2013-02-16 06:30:00,22.1,3.0,0.00,WSW,251,0.0,0.0,43,0.00,,---,0.00,VWS V14.00,2013-02-16 13:30:00,
2013-02-16 06:31:00,22.1,3.0,0.00,NW,317,3.1,3.6,43,0.00,,---,0.00,VWS V14.00,2013-02-16 13:31:00,
2013-02-16 06:32:00,22.1,3.0,0.00,NW,317,0.0,0.0,43,0.00,,---,0.00,VWS V14.00,2013-02-16 13:32:00,
2013-02-16 06:34:00,22.1,3.0,0.00,NW,317,0.0,0.0,43,0.00,,---,0.00,VWS V14.00,2013-02-16 13:34:00,
2013-02-16 06:35:00,21.9,2.9,0.00,NW,317,0.0,0.0,43,0.00,,---,0.00,VWS V14.00,2013-02-16 13:35:00,
2013-02-16 06:36:00,21.9,2.9,0.00,NW,311,0.0,0.0,43,0.00,,---,0.00,VWS V14.00,2013-02-16 13:36:00,
2013-02-16 06:37:00,21.9,2.9,0.00,WSW,255,0.0,0.0,43,0.00,,---,0.00,VWS V14.00,2013-02-16 13:37:00,
2013-02-16 06:40:00,21.9,2.9,0.00,NW,307,3.1,3.6,43,0.00,,---,0.00,VWS V14.00,2013-02-16 13:40:00,
2013-02-16 06:41:00,21.9,2.9,0.00,NW,306,0.0,0.0,43,0.00,,---,0.00,VWS V14.00,2013-02-16 13:41:00,
2013-02-16 06:42:00,21.9,2.9,0.00,NW,304,0.0,3.1,43,0.00,,---,0.00,VWS V14.00,2013-02-16 13:42:00,
2013-02-16 06:45:00,21.9,2.9,0.00,WNW,298,3.1,3.1,43,0.00,,---,0.00,VWS V14.00,2013-02-16 13:45:00,
2013-02-16 06:46:00,21.9,2.9,0.00,SW,233,5.8,5.8,43,0.00,,---,0.00,VWS V14.00,2013-02-16 13:46:00,
2013-02-16 06:48:00,21.9,2.9,0.00,WSW,258,0.0,0.0,43,0.00,,---,0.00,VWS V14.00,2013-02-16 13:48:00,
2013-02-16 06:50:00,21.9,2.9,0.00,WNW,303,5.4,5.4,43,0.00,,---,0.00,VWS V14.00,2013-02-16 13:50:00,
2013-02-16 06:51:00,21.9,2.9,0.00,NW,318,2.7,3.1,43,0.00,,---,0.00,VWS V14.00,2013-02-16 13:51:00,
2013-02-16 06:53:00,21.9,2.9,0.00,WNW,303,2.7,2.7,43,0.00,,---,0.00,VWS V14.00,2013-02-16 13:53:00,
2013-02-16 06:55:00,21.9,2.9,0.00,NW,307,0.0,2.2,43,0.00,,---,0.00,VWS V14.00,2013-02-16 13:55:00,
2013-02-16 06:56:00,21.9,2.9,0.00,WNW,285,0.0,0.0,43,0.00,,---,0.00,VWS V14.00,2013-02-16 13:56:00,
2013-02-16 06:58:00,21.9,2.9,0.00,WNW,285,0.0,0.0,43,0.00,,---,0.00,VWS V14.00,2013-02-16 13:58:00,
2013-02-16 07:00:00,21.9,2.9,0.00,West,275,0.0,3.6,43,0.00,,---,0.00,VWS V14.00,2013-02-16 14:00:00,
2013-02-16 07:01:00,21.9,2.9,0.00,West,273,0.0,0.0,43,0.00,,---,0.00,VWS V14.00,2013-02-16 14:01:00,
2013-02-16 07:03:00,21.9,2.9,0.00,West,275,0.0,0.0,43,0.00,,---,0.00,VWS V14.00,2013-02-16 14:03:00,
2013-02-16 07:05:00,21.7,2.7,0.00,West,270,0.0,0.0,43,0.00,,---,0.00,VWS V14.00,2013-02-16 14:05:00,
2013-02-16 07:07:00,21.7,2.7,0.00,South,178,2.7,3.6,43,0.00,,---,0.00,VWS V14.00,2013-02-16 14:07:00,
2013-02-16 07:08:00,21.7,2.7,0.00,ESE,123,4.0,6.3,43,0.00,,---,0.00,VWS V14.00,2013-02-16 14:08:00,
2013-02-16 07:10:00,21.9,2.9,0.00,East,83,3.1,3.1,43,0.00,,---,0.00,VWS V14.00,2013-02-16 14:10:00,
2013-02-16 07:12:00,21.9,2.9,0.00,ESE,108,5.8,8.1,43,0.00,,---,0.00,VWS V14.00,2013-02-16 14:12:00,
2013-02-16 07:13:00,21.9,2.9,0.00,ESE,103,5.8,8.3,43,0.00,,---,0.00,VWS V14.00,2013-02-16 14:13:00,
2013-02-16 07:15:00,21.9,2.9,0.00,ENE,63,10.1,10.1,43,0.00,,---,0.00,VWS V14.00,2013-02-16 14:15:00,
2013-02-16 07:17:00,21.9,2.9,0.00,ESE,123,3.6,8.3,43,0.00,,---,0.00,VWS V14.00,2013-02-16 14:17:00,
2013-02-16 07:19:00,22.1,3.0,0.00,East,101,4.0,5.8,43,0.00,,---,0.00,VWS V14.00,2013-02-16 14:19:00,
2013-02-16 07:20:00,22.1,3.0,0.00,East,82,3.1,3.6,43,0.00,,---,0.00,VWS V14.00,2013-02-16 14:20:00,
2013-02-16 07:22:00,22.1,3.0,0.00,SE,132,4.9,5.8,43,0.00,,---,0.00,VWS V14.00,2013-02-16 14:22:00,
2013-02-16 07:24:00,22.1,3.0,0.00,East,79,0.0,0.0,43,0.00,,---,0.00,VWS V14.00,2013-02-16 14:24:00,
2013-02-16 07:25:00,22.1,3.0,0.00,ENE,74,0.0,0.0,43,0.00,,---,0.00,VWS V14.00,2013-02-16 14:25:00,
2013-02-16 07:27:00,22.1,3.0,0.00,NNE,17,0.0,0.0,43,0.00,,---,0.00,VWS V14.00,2013-02-16 14:27:00,
2013-02-16 07:29:00,22.1,3.0,0.00,SE,140,4.9,4.9,43,0.00,,---,0.00,VWS V14.00,2013-02-16 14:29:00,
2013-02-16 07:30:00,22.1,3.0,0.00,East,96,6.3,6.3,43,0.00,,---,0.00,VWS V14.00,2013-02-16 14:30:00,
2013-02-16 07:32:00,22.1,3.0,0.00,East,82,3.1,3.1,43,0.00,,---,0.00,VWS V14.00,2013-02-16 14:32:00,
2013-02-16 07:34:00,22.1,3.0,0.00,ESE,115,4.0,6.3,43,0.00,,---,0.00,VWS V14.00,2013-02-16 14:34:00,
2013-02-16 07:35:00,22.1,3.0,0.00,SE,133,5.8,8.3,43,0.00,,---,0.00,VWS V14.00,2013-02-16 14:35:00,
2013-02-16 07:36:00,22.1,3.0,0.00,ESE,106,5.8,8.3,43,0.00,,---,0.00,VWS V14.00,2013-02-16 14:36:00,
2013-02-16 07:37:00,22.3,3.2,0.00,ESE,119,4.5,5.8,43,0.00,,---,0.00,VWS V14.00,2013-02-16 14:37:00,
2013-02-16 07:39:00,22.3,3.2,0.00,East,85,4.9,5.4,43,0.00,,---,0.00,VWS V14.00,2013-02-16 14:39:00,
2013-02-16 07:40:00,22.5,3.4,0.00,ESE,123,3.6,5.8,43,0.00,,---,0.00,VWS V14.00,2013-02-16 14:40:00,
2013-02-16 07:41:00,22.5,3.4,0.00,SE,124,5.8,5.8,43,0.00,,---,0.00,VWS V14.00,2013-02-16 14:41:00,
2013-02-16 07:42:00,22.5,3.4,0.00,ESE,110,3.6,6.3,43,0.00,,---,0.00,VWS V14.00,2013-02-16 14:42:00,
2013-02-16 07:44:00,22.6,3.5,0.00,SE,126,8.3,8.3,43,0.00,,---,0.00,VWS V14.00,2013-02-16 14:44:00,
2013-02-16 07:45:00,22.6,3.5,0.00,ESE,104,3.1,8.7,43,0.00,,---,0.00,VWS V14.00,2013-02-16 14:45:00,
2013-02-16 07:46:00,22.6,3.5,0.00,SE,131,5.8,8.7,43,0.00,,---,0.00,VWS V14.00,2013-02-16 14:46:00,
2013-02-16 07:47:00,22.8,3.7,0.00,ESE,121,5.4,7.6,43,0.00,,---,0.00,VWS V14.00,2013-02-16 14:47:00,
2013-02-16 07:49:00,22.8,3.7,0.00,SE,142,6.3,11.0,43,0.00,,---,0.00,VWS V14.00,2013-02-16 14:49:00,
2013-02-16 07:51:00,22.8,3.7,0.00,ESE,108,10.1,10.5,43,0.00,,---,0.00,VWS V14.00,2013-02-16 14:51:00,
2013-02-16 07:52:00,23.0,3.8,0.00,ESE,107,8.1,8.1,43,0.00,,---,0.00,VWS V14.00,2013-02-16 14:52:00,
2013-02-16 07:54:00,23.2,3.5,0.00,SE,134,8.3,9.6,42,0.00,,---,0.00,VWS V14.00,2013-02-16 14:54:00,
2013-02-16 07:56:00,23.4,3.7,0.00,ESE,117,13.2,13.2,42,0.00,,---,0.00,VWS V14.00,2013-02-16 14:56:00,
2013-02-16 07:57:00,23.5,3.8,0.00,SE,143,8.7,13.2,42,0.00,,---,0.00,VWS V14.00,2013-02-16 14:57:00,
2013-02-16 07:59:00,23.5,3.8,0.00,ESE,113,8.3,16.3,42,0.00,,---,0.00,VWS V14.00,2013-02-16 14:59:00,
2013-02-16 08:01:00,23.7,4.0,0.00,East,91,13.2,13.2,42,0.00,,---,0.00,VWS V14.00,2013-02-16 15:01:00,
2013-02-16 08:02:00,23.9,4.2,0.00,SE,127,8.1,10.5,42,0.00,,---,0.00,VWS V14.00,2013-02-16 15:02:00,
2013-02-16 08:04:00,23.9,4.2,0.00,East,97,8.1,11.4,42,0.00,,---,0.00,VWS V14.00,2013-02-16 15:04:00,
2013-02-16 08:06:00,24.1,4.3,0.00,ENE,69,8.1,8.1,42,0.00,,---,0.00,VWS V14.00,2013-02-16 15:06:00,
2013-02-16 08:08:00,24.1,4.3,0.00,ENE,65,10.1,14.5,42,0.00,,---,0.00,VWS V14.00,2013-02-16 15:08:00,
2013-02-16 08:09:00,24.3,4.5,0.00,SE,128,3.6,8.3,42,0.00,,---,0.00,VWS V14.00,2013-02-16 15:09:00,
2013-02-16 08:11:00,24.3,4.5,0.00,SSE,150,5.4,7.6,42,0.00,,---,0.00,VWS V14.00,2013-02-16 15:11:00,
2013-02-16 08:13:00,24.4,4.7,0.00,SE,141,5.4,5.4,42,0.00,,---,0.00,VWS V14.00,2013-02-16 15:13:00,
2013-02-16 08:14:00,24.4,4.7,0.00,East,89,10.1,10.1,42,0.00,,---,0.00,VWS V14.00,2013-02-16 15:14:00,
2013-02-16 08:16:00,24.6,4.8,0.00,SSE,147,12.8,12.8,42,0.00,,---,0.00,VWS V14.00,2013-02-16 15:16:00,
2013-02-16 08:18:00,24.8,5.0,0.00,SE,143,8.1,8.1,42,0.00,,---,0.00,VWS V14.00,2013-02-16 15:18:00,
2013-02-16 08:20:00,25.0,5.1,0.00,South,176,3.1,8.3,42,0.00,,---,0.00,VWS V14.00,2013-02-16 15:20:00,
2013-02-16 08:21:00,25.2,4.8,0.00,SE,143,5.8,5.8,41,0.00,,---,0.00,VWS V14.00,2013-02-16 15:21:00,
2013-02-16 08:23:00,25.3,4.9,0.00,SSE,154,4.9,8.1,41,0.00,,---,0.00,VWS V14.00,2013-02-16 15:23:00,
2013-02-16 08:24:00,25.5,5.1,0.00,SE,139,6.7,16.8,41,0.00,,---,0.00,VWS V14.00,2013-02-16 15:24:00,
2013-02-16 08:26:00,25.5,5.1,0.00,SE,137,10.5,10.5,41,0.00,,---,0.00,VWS V14.00,2013-02-16 15:26:00,
2013-02-16 08:28:00,25.9,5.4,0.00,SE,142,4.0,4.0,41,0.00,,---,0.00,VWS V14.00,2013-02-16 15:28:00,
2013-02-16 08:29:00,25.9,5.4,0.00,South,173,5.4,8.1,41,0.00,,---,0.00,VWS V14.00,2013-02-16 15:29:00,
2013-02-16 08:31:00,26.1,5.6,0.00,SSE,164,3.1,4.9,41,0.00,,---,0.00,VWS V14.00,2013-02-16 15:31:00,
2013-02-16 08:32:00,26.4,5.9,0.00,East,89,7.6,7.6,41,0.00,,---,0.00,VWS V14.00,2013-02-16 15:32:00,
2013-02-16 08:33:00,26.6,6.1,0.00,ESE,114,11.0,11.0,41,0.00,,---,0.00,VWS V14.00,2013-02-16 15:33:00,
2013-02-16 08:34:00,26.6,6.1,0.00,SSE,159,3.6,8.3,41,0.00,,---,0.00,VWS V14.00,2013-02-16 15:34:00,
2013-02-16 08:36:00,26.8,6.2,0.00,ENE,57,3.1,4.0,41,0.00,,---,0.00,VWS V14.00,2013-02-16 15:36:00,
2013-02-16 08:37:00,27.0,6.4,0.00,East,85,7.6,7.6,41,0.00,,---,0.00,VWS V14.00,2013-02-16 15:37:00,
2013-02-16 08:38:00,27.0,6.4,0.00,ESE,110,5.4,6.3,41,0.00,,---,0.00,VWS V14.00,2013-02-16 15:38:00,
2013-02-16 08:40:00,27.0,6.4,0.00,East,94,12.8,13.2,41,0.00,,---,0.00,VWS V14.00,2013-02-16 15:40:00,
2013-02-16 08:41:00,27.0,6.4,0.00,ENE,57,10.5,10.5,41,0.00,,---,0.00,VWS V14.00,2013-02-16 15:41:00,
2013-02-16 08:42:00,27.0,6.4,0.00,SE,135,5.8,5.8,41,0.00,,---,0.00,VWS V14.00,2013-02-16 15:42:00,
2013-02-16 08:43:00,27.1,6.6,0.00,West,263,4.0,4.0,41,0.00,,---,0.00,VWS V14.00,2013-02-16 15:43:00,
2013-02-16 08:45:00,27.1,6.6,0.00,ENE,72,6.3,6.3,41,0.00,,---,0.00,VWS V14.00,2013-02-16 15:45:00,
2013-02-16 08:46:00,27.1,6.6,0.00,SSE,168,0.0,5.4,41,0.00,,---,0.00,VWS V14.00,2013-02-16 15:46:00,
2013-02-16 08:47:00,27.3,6.7,0.00,ESE,122,3.6,3.6,41,0.00,,---,0.00,VWS V14.00,2013-02-16 15:47:00,
2013-02-16 08:48:00,27.3,6.7,0.00,ESE,105,6.3,6.3,41,0.00,,---,0.00,VWS V14.00,2013-02-16 15:48:00,
2013-02-16 08:50:00,27.3,6.7,0.00,SE,126,10.5,10.5,41,0.00,,---,0.00,VWS V14.00,2013-02-16 15:50:00,
2013-02-16 08:52:00,27.5,6.9,0.00,SE,136,7.6,7.6,41,0.00,,---,0.00,VWS V14.00,2013-02-16 15:52:00,
2013-02-16 08:54:00,27.5,6.9,0.00,SE,139,3.6,4.0,41,0.00,,---,0.00,VWS V14.00,2013-02-16 15:54:00,
2013-02-16 08:55:00,27.7,7.1,0.00,ESE,108,6.3,8.7,41,0.00,,---,0.00,VWS V14.00,2013-02-16 15:55:00,
2013-02-16 08:57:00,27.7,7.1,0.00,ENE,64,3.6,5.4,41,0.00,,---,0.00,VWS V14.00,2013-02-16 15:57:00,
2013-02-16 08:59:00,27.7,7.1,0.00,East,89,8.7,9.2,41,0.00,,---,0.00,VWS V14.00,2013-02-16 15:59:00,
2013-02-16 09:00:00,27.7,7.1,0.00,ESE,114,8.7,10.5,41,0.00,,---,0.00,VWS V14.00,2013-02-16 16:00:00,
2013-02-16 09:02:00,27.9,7.2,0.00,SSE,165,8.1,14.5,41,0.00,,---,0.00,VWS V14.00,2013-02-16 16:02:00,
2013-02-16 09:04:00,27.9,7.2,0.00,East,86,6.7,6.7,41,0.00,,---,0.00,VWS V14.00,2013-02-16 16:04:00,
2013-02-16 09:06:00,27.9,7.2,0.00,ESE,117,5.4,10.5,41,0.00,,---,0.00,VWS V14.00,2013-02-16 16:06:00,
2013-02-16 09:07:00,28.0,7.4,0.00,SE,133,8.3,15.0,41,0.00,,---,0.00,VWS V14.00,2013-02-16 16:07:00,
2013-02-16 09:09:00,28.0,7.4,0.00,ENE,76,6.3,14.1,41,0.00,,---,0.00,VWS V14.00,2013-02-16 16:09:00,
2013-02-16 09:11:00,28.2,7.6,0.00,ESE,116,8.3,11.0,41,0.00,,---,0.00,VWS V14.00,2013-02-16 16:11:00,
2013-02-16 09:12:00,28.2,7.6,0.00,ESE,111,5.4,9.6,41,0.00,,---,0.00,VWS V14.00,2013-02-16 16:12:00,
2013-02-16 09:13:00,28.2,7.6,0.00,SE,139,10.1,10.1,41,0.00,,---,0.00,VWS V14.00,2013-02-16 16:13:00,
2013-02-16 09:14:00,28.4,7.7,0.00,SSE,154,4.9,8.3,41,0.00,,---,0.00,VWS V14.00,2013-02-16 16:14:00,
2013-02-16 09:16:00,28.4,7.7,0.00,East,84,10.5,10.5,41,0.00,,---,0.00,VWS V14.00,2013-02-16 16:16:00,
2013-02-16 09:17:00,28.4,7.7,0.00,SSE,151,8.3,8.7,41,0.00,,---,0.00,VWS V14.00,2013-02-16 16:17:00,
2013-02-16 09:18:00,28.4,7.7,0.00,ESE,112,3.6,4.0,41,0.00,,---,0.00,VWS V14.00,2013-02-16 16:18:00,
2013-02-16 09:19:00,28.6,7.3,0.00,ESE,112,5.4,12.8,40,0.00,,---,0.00,VWS V14.00,2013-02-16 16:19:00,
2013-02-16 09:21:00,28.8,8.0,0.00,SSE,154,11.0,11.0,41,0.00,,---,0.00,VWS V14.00,2013-02-16 16:21:00,
2013-02-16 09:22:00,28.9,8.2,0.00,South,189,3.1,15.0,41,0.00,,---,0.00,VWS V14.00,2013-02-16 16:22:00,
2013-02-16 09:23:00,28.9,8.2,0.00,ESE,121,6.3,8.3,41,0.00,,---,0.00,VWS V14.00,2013-02-16 16:23:00,
2013-02-16 09:25:00,28.9,8.2,0.00,SSE,152,5.8,14.5,41,0.00,,---,0.00,VWS V14.00,2013-02-16 16:25:00,
2013-02-16 09:26:00,28.9,8.2,0.00,East,98,6.3,8.3,41,0.00,,---,0.00,VWS V14.00,2013-02-16 16:26:00,
2013-02-16 09:27:00,29.1,8.4,0.00,East,83,11.9,11.9,41,0.00,,---,0.00,VWS V14.00,2013-02-16 16:27:00,
2013-02-16 09:28:00,29.1,8.4,0.00,SSE,158,6.3,8.7,41,0.00,,---,0.00,VWS V14.00,2013-02-16 16:28:00,
2013-02-16 09:30:00,29.1,8.4,0.00,ESE,105,8.3,8.3,41,0.00,,---,0.00,VWS V14.00,2013-02-16 16:30:00,
2013-02-16 09:31:00,29.3,8.5,0.00,East,93,5.8,8.3,41,0.00,,---,0.00,VWS V14.00,2013-02-16 16:31:00,
2013-02-16 09:32:00,29.3,8.5,0.00,East,84,5.8,10.5,41,0.00,,---,0.00,VWS V14.00,2013-02-16 16:32:00,
2013-02-16 09:33:00,29.5,8.7,0.00,SE,141,8.1,16.8,41,0.00,,---,0.00,VWS V14.00,2013-02-16 16:33:00,
2013-02-16 09:35:00,29.5,8.7,0.00,ESE,105,8.7,15.4,41,0.00,,---,0.00,VWS V14.00,2013-02-16 16:35:00,
2013-02-16 09:36:00,29.5,8.7,0.00,ENE,68,8.7,11.0,41,0.00,,---,0.00,VWS V14.00,2013-02-16 16:36:00,
2013-02-16 09:37:00,29.7,8.9,0.00,East,101,15.0,15.0,41,0.00,,---,0.00,VWS V14.00,2013-02-16 16:37:00,
2013-02-16 09:38:00,29.7,8.9,0.00,SE,131,7.6,10.5,41,0.00,,---,0.00,VWS V14.00,2013-02-16 16:38:00,
2013-02-16 09:40:00,29.8,9.0,0.00,SE,139,8.1,8.1,41,0.00,,---,0.00,VWS V14.00,2013-02-16 16:40:00,
2013-02-16 09:41:00,30.0,9.2,0.00,ESE,116,14.5,14.5,41,0.00,,---,0.00,VWS V14.00,2013-02-16 16:41:00,
2013-02-16 09:42:00,30.0,9.2,0.00,SW,218,10.1,10.1,41,0.00,,---,0.00,VWS V14.00,2013-02-16 16:42:00,
2013-02-16 09:43:00,30.2,9.4,0.00,SE,128,10.1,10.5,41,0.00,,---,0.00,VWS V14.00,2013-02-16 16:43:00,
2013-02-16 09:45:00,30.2,9.4,0.00,East,88,5.8,6.3,41,0.00,,---,0.00,VWS V14.00,2013-02-16 16:45:00,
2013-02-16 09:47:00,30.2,8.8,0.00,ESE,115,5.4,9.6,40,0.00,,---,0.00,VWS V14.00,2013-02-16 16:47:00,
2013-02-16 09:48:00,30.4,9.0,0.00,ESE,109,6.3,8.3,40,0.00,,---,0.00,VWS V14.00,2013-02-16 16:48:00,
2013-02-16 09:50:00,30.6,9.1,0.00,ESE,106,10.1,10.1,40,0.00,,---,0.00,VWS V14.00,2013-02-16 16:50:00,
2013-02-16 09:52:00,30.6,9.1,0.00,ESE,113,5.8,10.1,40,0.00,,---,0.00,VWS V14.00,2013-02-16 16:52:00,
2013-02-16 09:53:00,30.7,9.3,0.00,SE,125,8.1,8.3,40,0.00,,---,0.00,VWS V14.00,2013-02-16 16:53:00,
2013-02-16 09:54:00,30.7,9.3,0.00,East,82,10.5,10.5,40,0.00,,---,0.00,VWS V14.00,2013-02-16 16:54:00,
2013-02-16 09:55:00,30.7,9.3,0.00,ENE,68,10.1,11.0,40,0.00,,---,0.00,VWS V14.00,2013-02-16 16:55:00,
2013-02-16 09:57:00,30.9,9.4,0.00,ESE,109,12.8,13.6,40,0.00,,---,0.00,VWS V14.00,2013-02-16 16:57:00,
2013-02-16 09:58:00,30.9,9.4,0.00,SSW,202,6.3,12.3,40,0.00,,---,0.00,VWS V14.00,2013-02-16 16:58:00,
2013-02-16 09:59:00,31.1,9.6,0.00,ESE,109,13.2,13.2,40,0.00,,---,0.00,VWS V14.00,2013-02-16 16:59:00,
2013-02-16 10:00:00,31.1,9.6,0.00,East,97,5.8,8.7,40,0.00,,---,0.00,VWS V14.00,2013-02-16 17:00:00,
2013-02-16 10:02:00,31.1,9.6,0.00,ESE,104,16.3,16.3,40,0.00,,---,0.00,VWS V14.00,2013-02-16 17:02:00,
2013-02-16 10:03:00,31.3,9.8,0.00,SE,131,5.4,6.3,40,0.00,,---,0.00,VWS V14.00,2013-02-16 17:03:00,
2013-02-16 10:04:00,31.3,9.8,0.00,East,88,5.4,8.7,40,0.00,,---,0.00,VWS V14.00,2013-02-16 17:04:00,
2013-02-16 10:05:00,31.5,9.9,0.00,East,99,7.2,10.5,40,0.00,,---,0.00,VWS V14.00,2013-02-16 17:05:00,
2013-02-16 10:07:00,31.5,9.9,0.00,ESE,103,11.0,11.0,40,0.00,,---,0.00,VWS V14.00,2013-02-16 17:07:00,
2013-02-16 10:08:00,31.6,10.1,0.00,East,84,5.8,10.5,40,0.00,,---,0.00,VWS V14.00,2013-02-16 17:08:00,
2013-02-16 10:09:00,31.6,10.1,0.00,East,90,8.3,10.5,40,0.00,,---,0.00,VWS V14.00,2013-02-16 17:09:00,
2013-02-16 10:11:00,31.8,10.3,0.00,ESE,120,6.7,11.0,40,0.00,,---,0.00,VWS V14.00,2013-02-16 17:11:00,
2013-02-16 10:12:00,31.8,10.3,0.00,East,96,8.1,15.4,40,0.00,,---,0.00,VWS V14.00,2013-02-16 17:12:00,
2013-02-16 10:13:00,32.0,10.4,0.00,ESE,114,6.3,6.7,40,0.00,,---,0.00,VWS V14.00,2013-02-16 17:13:00,
2013-02-16 10:14:00,32.0,10.4,0.00,ESE,118,5.4,8.3,40,0.00,,---,0.00,VWS V14.00,2013-02-16 17:14:00,
2013-02-16 10:16:00,32.2,10.0,0.00,ENE,71,10.1,10.1,39,0.00,,---,0.00,VWS V14.00,2013-02-16 17:16:00,
2013-02-16 10:17:00,32.2,10.0,0.00,SE,124,4.9,6.3,39,0.00,,---,0.00,VWS V14.00,2013-02-16 17:17:00,
2013-02-16 10:18:00,32.2,10.0,0.00,ESE,112,6.3,10.5,39,0.00,,---,0.00,VWS V14.00,2013-02-16 17:18:00,
2013-02-16 10:19:00,32.2,10.0,0.00,East,97,5.8,5.8,39,0.00,,---,0.00,VWS V14.00,2013-02-16 17:19:00,
2013-02-16 10:21:00,32.4,10.8,0.00,SE,125,4.0,5.4,40,0.00,,---,0.00,VWS V14.00,2013-02-16 17:21:00,
2013-02-16 10:22:00,32.5,10.9,0.00,East,93,8.1,8.1,40,0.00,,---,0.00,VWS V14.00,2013-02-16 17:22:00,
2013-02-16 10:23:00,32.5,10.4,0.00,ESE,115,6.7,8.3,39,0.00,,---,0.00,VWS V14.00,2013-02-16 17:23:00,
2013-02-16 10:24:00,32.5,10.4,0.00,ESE,111,7.6,7.6,39,0.00,,---,0.00,VWS V14.00,2013-02-16 17:24:00,
2013-02-16 10:26:00,32.7,10.5,0.00,SE,141,6.3,7.2,39,0.00,,---,0.00,VWS V14.00,2013-02-16 17:26:00,
2013-02-16 10:27:00,32.7,10.5,0.00,ENE,67,12.3,12.3,39,0.00,,---,0.00,VWS V14.00,2013-02-16 17:27:00,
2013-02-16 10:28:00,32.7,10.5,0.00,ESE,111,8.7,8.7,39,0.00,,---,0.00,VWS V14.00,2013-02-16 17:28:00,
2013-02-16 10:29:00,32.9,10.7,0.00,ENE,66,8.1,8.3,39,0.00,,---,0.00,VWS V14.00,2013-02-16 17:29:00,
2013-02-16 10:31:00,32.9,10.7,0.00,SE,129,8.1,10.5,39,0.00,,---,0.00,VWS V14.00,2013-02-16 17:31:00,
2013-02-16 10:33:00,33.1,10.8,0.00,ESE,112,6.3,8.3,39,0.00,,---,0.00,VWS V14.00,2013-02-16 17:33:00,
2013-02-16 10:34:00,33.1,10.8,0.00,ESE,118,11.0,11.0,39,0.00,,---,0.00,VWS V14.00,2013-02-16 17:34:00,
2013-02-16 10:36:00,33.3,11.0,0.00,SE,127,4.9,7.6,39,0.00,,---,0.00,VWS V14.00,2013-02-16 17:36:00,
2013-02-16 10:38:00,33.3,11.0,0.00,SE,144,6.3,6.3,39,0.00,,---,0.00,VWS V14.00,2013-02-16 17:38:00,
2013-02-16 10:39:00,33.3,11.0,0.00,South,183,5.8,6.3,39,0.00,,---,0.00,VWS V14.00,2013-02-16 17:39:00,
2013-02-16 10:40:00,33.3,11.0,0.00,ESE,122,2.7,6.3,39,0.00,,---,0.00,VWS V14.00,2013-02-16 17:40:00,
2013-02-16 10:41:00,33.4,11.2,0.00,East,84,3.1,10.1,39,0.00,,---,0.00,VWS V14.00,2013-02-16 17:41:00,
2013-02-16 10:43:00,33.4,11.2,0.00,ENE,75,6.3,6.3,39,0.00,,---,0.00,VWS V14.00,2013-02-16 17:43:00,
2013-02-16 10:44:00,33.4,11.7,0.00,East,101,4.9,6.3,40,0.00,,---,0.00,VWS V14.00,2013-02-16 17:44:00,
2013-02-16 10:45:00,33.3,11.6,0.00,East,96,6.3,6.3,40,0.00,,---,0.00,VWS V14.00,2013-02-16 17:45:00,
2013-02-16 10:47:00,33.3,11.6,0.00,ESE,119,5.8,5.8,40,0.00,,---,0.00,VWS V14.00,2013-02-16 17:47:00,
2013-02-16 10:48:00,33.3,11.6,0.00,East,86,3.1,4.5,40,0.00,,---,0.00,VWS V14.00,2013-02-16 17:48:00,
2013-02-16 10:49:00,33.3,11.6,0.00,East,96,2.7,5.8,40,0.00,,---,0.00,VWS V14.00,2013-02-16 17:49:00,
2013-02-16 10:50:00,33.3,11.6,0.00,ENE,60,4.0,4.0,40,0.00,,---,0.00,VWS V14.00,2013-02-16 17:50:00,
2013-02-16 10:52:00,33.3,11.6,0.00,ENE,58,3.6,8.7,40,0.00,,---,0.00,VWS V14.00,2013-02-16 17:52:00,
2013-02-16 10:53:00,33.3,11.6,0.00,ENE,64,3.1,3.1,40,0.00,,---,0.00,VWS V14.00,2013-02-16 17:53:00,
2013-02-16 10:54:00,33.3,11.6,0.00,ESE,111,3.6,5.4,40,0.00,,---,0.00,VWS V14.00,2013-02-16 17:54:00,
2013-02-16 10:55:00,33.1,11.4,0.00,ENE,59,2.7,2.7,40,0.00,,---,0.00,VWS V14.00,2013-02-16 17:55:00,
2013-02-16 10:57:00,33.1,11.4,0.00,ENE,67,6.3,9.6,40,0.00,,---,0.00,VWS V14.00,2013-02-16 17:57:00,
2013-02-16 10:58:00,33.1,10.8,0.00,East,101,2.7,4.9,39,0.00,,---,0.00,VWS V14.00,2013-02-16 17:58:00,
2013-02-16 10:59:00,33.1,10.8,0.00,ESE,118,8.1,8.1,39,0.00,,---,0.00,VWS V14.00,2013-02-16 17:59:00,
2013-02-16 11:00:00,33.1,10.8,0.00,ESE,123,3.6,4.0,39,0.00,,---,0.00,VWS V14.00,2013-02-16 18:00:00,
2013-02-16 11:02:00,33.1,10.8,0.00,East,101,3.6,3.6,39,0.00,,---,0.00,VWS V14.00,2013-02-16 18:02:00,
2013-02-16 11:03:00,33.1,11.4,0.00,East,87,2.7,3.1,40,0.00,,---,0.00,VWS V14.00,2013-02-16 18:03:00,
2013-02-16 11:04:00,33.1,11.4,0.00,East,97,3.1,4.0,40,0.00,,---,0.00,VWS V14.00,2013-02-16 18:04:00,
2013-02-16 11:05:00,33.1,11.4,0.00,SW,236,4.0,4.9,40,0.00,,---,0.00,VWS V14.00,2013-02-16 18:05:00,
2013-02-16 11:07:00,33.1,11.4,0.00,WSW,247,2.7,3.6,40,0.00,,---,0.00,VWS V14.00,2013-02-16 18:07:00,
2013-02-16 11:08:00,33.1,11.4,0.00,ESE,105,5.4,5.4,40,0.00,,---,0.00,VWS V14.00,2013-02-16 18:08:00,
2013-02-16 11:09:00,33.1,10.8,0.00,SE,139,5.4,5.4,39,0.00,,---,0.00,VWS V14.00,2013-02-16 18:09:00,
2013-02-16 11:10:00,33.1,10.8,0.00,East,83,5.8,7.6,39,0.00,,---,0.00,VWS V14.00,2013-02-16 18:10:00,
2013-02-16 11:13:00,33.3,11.0,0.00,ENE,69,5.4,8.1,39,0.00,,---,0.00,VWS V14.00,2013-02-16 18:13:00,
2013-02-16 11:14:00,33.3,10.4,0.00,ESE,116,4.0,8.7,38,0.00,,---,0.00,VWS V14.00,2013-02-16 18:14:00,
2013-02-16 11:15:00,33.3,10.4,0.00,ESE,120,6.7,6.7,38,0.00,,---,0.00,VWS V14.00,2013-02-16 18:15:00,
2013-02-16 11:18:00,33.6,10.7,0.00,SE,134,8.3,8.3,38,0.00,,---,0.00,VWS V14.00,2013-02-16 18:18:00,
2013-02-16 11:19:00,33.6,10.7,0.00,South,179,4.0,10.5,38,0.00,,---,0.00,VWS V14.00,2013-02-16 18:19:00,
2013-02-16 11:20:00,33.8,10.3,0.00,SE,133,11.0,16.8,37,0.00,,---,0.00,VWS V14.00,2013-02-16 18:20:00,
2013-02-16 11:23:00,34.0,9.9,0.00,SSW,212,15.0,15.0,36,0.00,,---,0.00,VWS V14.00,2013-02-16 18:23:00,
2013-02-16 11:24:00,34.2,8.7,0.00,NNE,14,3.1,15.0,34,0.00,,---,0.00,VWS V14.00,2013-02-16 18:24:00,
2013-02-16 11:25:00,34.5,8.4,0.00,SE,138,3.6,6.3,33,0.00,,---,0.00,VWS V14.00,2013-02-16 18:25:00,
2013-02-16 11:28:00,34.9,8.7,0.00,SSE,148,5.4,8.7,33,0.00,,---,0.00,VWS V14.00,2013-02-16 18:28:00,
2013-02-16 11:29:00,35.1,8.9,0.00,SW,215,2.7,10.5,33,0.00,,---,0.00,VWS V14.00,2013-02-16 18:29:00,
2013-02-16 11:30:00,35.1,8.9,0.00,SSE,164,4.0,5.8,33,0.00,,---,0.00,VWS V14.00,2013-02-16 18:30:00,
2013-02-16 11:33:00,35.4,9.9,0.00,South,180,6.3,6.3,34,0.00,,---,0.00,VWS V14.00,2013-02-16 18:33:00,
2013-02-16 11:34:00,35.4,9.9,0.00,ESE,118,10.1,10.1,34,0.00,,---,0.00,VWS V14.00,2013-02-16 18:34:00,
2013-02-16 11:36:00,35.6,9.4,0.00,SW,233,5.8,8.3,33,0.00,,---,0.00,VWS V14.00,2013-02-16 18:36:00,
2013-02-16 11:38:00,35.6,9.4,0.00,East,96,8.7,11.0,33,0.00,,---,0.00,VWS V14.00,2013-02-16 18:38:00,
2013-02-16 11:39:00,35.6,10.0,0.00,ESE,112,9.2,11.0,34,0.00,,---,0.00,VWS V14.00,2013-02-16 18:39:00,
2013-02-16 11:40:00,35.8,10.2,0.00,ENE,78,7.6,9.2,34,0.00,,---,0.00,VWS V14.00,2013-02-16 18:40:00,
2013-02-16 11:41:00,35.8,10.2,0.00,WSW,257,2.7,11.0,34,0.00,,---,0.00,VWS V14.00,2013-02-16 18:41:00,
2013-02-16 11:43:00,36.0,9.0,0.00,East,98,5.4,5.4,32,0.00,,---,0.00,VWS V14.00,2013-02-16 18:43:00,
2013-02-16 11:44:00,36.0,9.0,0.00,SW,226,3.6,5.4,32,0.00,,---,0.00,VWS V14.00,2013-02-16 18:44:00,
2013-02-16 11:45:00,36.1,9.8,0.00,East,94,11.0,11.0,33,0.00,,---,0.00,VWS V14.00,2013-02-16 18:45:00,
2013-02-16 11:46:00,36.1,9.8,0.00,SE,140,8.1,11.0,33,0.00,,---,0.00,VWS V14.00,2013-02-16 18:46:00,
2013-02-16 11:48:00,36.1,10.5,0.00,SE,124,10.1,15.0,34,0.00,,---,0.00,VWS V14.00,2013-02-16 18:48:00,
2013-02-16 11:49:00,36.1,10.5,0.00,SW,216,3.1,15.0,34,0.00,,---,0.00,VWS V14.00,2013-02-16 18:49:00,
2013-02-16 11:50:00,36.1,10.5,0.00,East,96,11.0,11.0,34,0.00,,---,0.00,VWS V14.00,2013-02-16 18:50:00,
2013-02-16 11:51:00,36.3,10.6,0.00,SE,129,8.1,11.0,34,0.00,,---,0.00,VWS V14.00,2013-02-16 18:51:00,
2013-02-16 11:53:00,36.3,10.6,0.00,SE,135,7.6,8.7,34,0.00,,---,0.00,VWS V14.00,2013-02-16 18:53:00,
2013-02-16 11:54:00,36.3,10.6,0.00,SSE,153,8.1,14.1,34,0.00,,---,0.00,VWS V14.00,2013-02-16 18:54:00,
2013-02-16 11:55:00,36.3,10.6,0.00,SE,135,8.3,10.5,34,0.00,,---,0.00,VWS V14.00,2013-02-16 18:55:00,
2013-02-16 11:56:00,36.5,10.8,0.00,South,170,8.3,13.2,34,0.00,,---,0.00,VWS V14.00,2013-02-16 18:56:00,
2013-02-16 11:58:00,36.5,10.1,0.00,South,182,5.8,5.8,33,0.00,,---,0.00,VWS V14.00,2013-02-16 18:58:00,
2013-02-16 11:59:00,36.7,10.3,0.00,SSE,162,3.1,5.8,33,0.00,,---,0.00,VWS V14.00,2013-02-16 18:59:00,
2013-02-16 12:00:00,36.7,10.3,0.00,ESE,108,4.0,4.0,33,0.00,,---,0.00,VWS V14.00,2013-02-16 19:00:00,
2013-02-16 12:01:00,36.7,11.0,0.00,ESE,122,11.0,13.2,34,0.00,,---,0.00,VWS V14.00,2013-02-16 19:01:00,
2013-02-16 12:03:00,36.7,11.0,0.00,SSW,203,4.0,4.0,34,0.00,,---,0.00,VWS V14.00,2013-02-16 19:03:00,
2013-02-16 12:04:00,36.9,11.1,0.00,South,184,3.1,3.1,34,0.00,,---,0.00,VWS V14.00,2013-02-16 19:04:00,
2013-02-16 12:05:00,36.9,11.1,0.00,South,186,7.2,9.2,34,0.00,,---,0.00,VWS V14.00,2013-02-16 19:05:00,
2013-02-16 12:06:00,36.9,11.1,0.00,SSW,212,4.9,4.9,34,0.00,,---,0.00,VWS V14.00,2013-02-16 19:06:00,
2013-02-16 12:08:00,37.0,11.3,0.00,ESE,118,5.4,12.3,34,0.00,,---,0.00,VWS V14.00,2013-02-16 19:08:00,
2013-02-16 12:09:00,37.0,11.3,0.00,ESE,120,3.6,5.8,34,0.00,,---,0.00,VWS V14.00,2013-02-16 19:09:00,
2013-02-16 12:10:00,37.0,11.3,0.00,ENE,63,8.1,10.1,34,0.00,,---,0.00,VWS V14.00,2013-02-16 19:10:00,
2013-02-16 12:11:00,37.0,11.3,0.00,NNE,29,3.1,4.9,34,0.00,,---,0.00,VWS V14.00,2013-02-16 19:11:00,
2013-02-16 12:13:00,37.2,11.4,0.00,East,93,3.1,7.6,34,0.00,,---,0.00,VWS V14.00,2013-02-16 19:13:00,
2013-02-16 12:14:00,37.2,10.8,0.00,SSW,197,0.0,4.0,33,0.00,,---,0.00,VWS V14.00,2013-02-16 19:14:00,
2013-02-16 12:15:00,37.2,10.8,0.00,SSW,210,3.1,4.0,33,0.00,,---,0.00,VWS V14.00,2013-02-16 19:15:00,
2013-02-16 12:16:00,37.4,10.9,0.00,ESE,118,4.0,10.5,33,0.00,,---,0.00,VWS V14.00,2013-02-16 19:16:00,
2013-02-16 12:19:00,37.4,10.9,0.00,East,98,5.8,8.7,33,0.00,,---,0.00,VWS V14.00,2013-02-16 19:19:00,
2013-02-16 12:20:00,37.6,11.1,0.00,South,186,4.0,5.4,33,0.00,,---,0.00,VWS V14.00,2013-02-16 19:20:00,
2013-02-16 12:21:00,37.6,11.1,0.00,SE,138,2.7,5.8,33,0.00,,---,0.00,VWS V14.00,2013-02-16 19:21:00,
2013-02-16 12:24:00,37.6,11.1,0.00,WSW,238,3.6,10.5,33,0.00,,---,0.00,VWS V14.00,2013-02-16 19:24:00,
2013-02-16 12:25:00,37.6,11.1,0.00,SSE,153,8.7,8.7,33,0.00,,---,0.00,VWS V14.00,2013-02-16 19:25:00,
2013-02-16 12:26:00,37.8,11.3,0.00,SE,142,5.8,8.7,33,0.00,,---,0.00,VWS V14.00,2013-02-16 19:26:00,
2013-02-16 12:29:00,37.8,11.3,0.00,ENE,71,8.3,8.3,33,0.00,,---,0.00,VWS V14.00,2013-02-16 19:29:00,
2013-02-16 12:30:00,37.9,11.4,0.00,SSW,212,2.7,3.1,33,0.00,,---,0.00,VWS V14.00,2013-02-16 19:30:00,
2013-02-16 12:31:00,37.9,10.7,0.00,West,280,4.0,5.4,32,0.00,,---,0.00,VWS V14.00,2013-02-16 19:31:00,
2013-02-16 12:34:00,37.9,10.7,0.00,East,101,6.3,8.7,32,0.00,,---,0.00,VWS V14.00,2013-02-16 19:34:00,
2013-02-16 12:35:00,37.9,10.7,0.00,East,85,5.8,8.7,32,0.00,,---,0.00,VWS V14.00,2013-02-16 19:35:00,
2013-02-16 12:36:00,38.1,11.6,0.00,ESE,108,6.3,7.6,33,0.00,,---,0.00,VWS V14.00,2013-02-16 19:36:00,
2013-02-16 12:39:00,38.1,11.6,0.00,ESE,104,7.6,7.6,33,0.00,,---,0.00,VWS V14.00,2013-02-16 19:39:00,
2013-02-16 12:40:00,38.1,11.6,0.00,SE,135,3.1,8.3,33,0.00,,---,0.00,VWS V14.00,2013-02-16 19:40:00,
2013-02-16 12:41:00,38.1,11.6,0.00,SSE,165,3.1,4.0,33,0.00,,---,0.00,VWS V14.00,2013-02-16 19:41:00,
2013-02-16 12:44:00,38.3,11.7,0.00,SSE,153,8.1,8.1,33,0.00,,---,0.00,VWS V14.00,2013-02-16 19:44:00,
2013-02-16 12:45:00,38.3,11.7,0.00,South,177,7.6,7.6,33,0.00,,---,0.00,VWS V14.00,2013-02-16 19:45:00,
2013-02-16 12:46:00,38.5,11.9,0.00,ESE,107,5.4,5.4,33,0.00,,---,0.00,VWS V14.00,2013-02-16 19:46:00,
2013-02-16 12:49:00,38.5,11.9,0.00,East,99,3.1,6.3,33,0.00,,---,0.00,VWS V14.00,2013-02-16 19:49:00,
2013-02-16 12:50:00,38.7,12.1,0.00,East,100,4.5,8.7,33,0.00,,---,0.00,VWS V14.00,2013-02-16 19:50:00,
2013-02-16 12:52:00,38.7,12.1,0.00,SE,127,8.7,8.7,33,0.00,,---,0.00,VWS V14.00,2013-02-16 19:52:00,
2013-02-16 12:54:00,38.7,12.1,0.00,ESE,115,8.3,8.3,33,0.00,,---,0.00,VWS V14.00,2013-02-16 19:54:00,
2013-02-16 12:55:00,38.7,12.1,0.00,SE,133,4.0,5.4,33,0.00,,---,0.00,VWS V14.00,2013-02-16 19:55:00,
2013-02-16 12:56:00,38.7,12.1,0.00,SE,129,6.3,6.3,33,0.00,,---,0.00,VWS V14.00,2013-02-16 19:56:00,
2013-02-16 12:57:00,38.7,12.1,0.00,East,97,6.7,6.7,33,0.00,,---,0.00,VWS V14.00,2013-02-16 19:57:00,
2013-02-16 12:59:00,38.8,12.2,0.00,SE,142,6.3,6.3,33,0.00,,---,0.00,VWS V14.00,2013-02-16 19:59:00,
2013-02-16 13:00:00,38.8,12.2,0.00,SE,129,8.3,8.7,33,0.00,,---,0.00,VWS V14.00,2013-02-16 20:00:00,
2013-02-16 13:01:00,38.8,12.2,0.00,ENE,75,4.9,4.9,33,0.00,,---,0.00,VWS V14.00,2013-02-16 20:01:00,
2013-02-16 13:02:00,38.8,12.2,0.00,SE,137,4.9,4.9,33,0.00,,---,0.00,VWS V14.00,2013-02-16 20:02:00,
2013-02-16 13:04:00,39.0,12.4,0.00,ENE,77,4.9,9.6,33,0.00,,---,0.00,VWS V14.00,2013-02-16 20:04:00,
2013-02-16 13:06:00,39.2,12.5,0.00,East,85,4.0,6.3,33,0.00,,---,0.00,VWS V14.00,2013-02-16 20:06:00,
2013-02-16 13:07:00,39.2,12.5,0.00,ESE,116,3.6,3.6,33,0.00,,---,0.00,VWS V14.00,2013-02-16 20:07:00,
2013-02-16 13:09:00,39.4,12.7,0.00,East,83,4.9,4.9,33,0.00,,---,0.00,VWS V14.00,2013-02-16 20:09:00,
2013-02-16 13:11:00,39.4,12.7,0.00,WNW,284,3.1,3.1,33,0.00,,---,0.00,VWS V14.00,2013-02-16 20:11:00,
2013-02-16 13:12:00,39.4,12.7,0.00,East,83,2.7,2.7,33,0.00,,---,0.00,VWS V14.00,2013-02-16 20:12:00,
2013-02-16 13:14:00,39.4,12.7,0.00,ESE,107,0.0,4.0,33,0.00,,---,0.00,VWS V14.00,2013-02-16 20:14:00,
2013-02-16 13:16:00,39.4,12.7,0.00,SE,142,6.3,6.3,33,0.00,,---,0.00,VWS V14.00,2013-02-16 20:16:00,
2013-02-16 13:18:00,39.6,12.9,0.00,SW,220,6.3,7.6,33,0.00,,---,0.00,VWS V14.00,2013-02-16 20:18:00,
2013-02-16 13:19:00,39.6,12.9,0.00,WSW,246,3.1,4.0,33,0.00,,---,0.00,VWS V14.00,2013-02-16 20:19:00,
2013-02-16 13:21:00,39.6,12.9,0.00,West,267,3.1,3.1,33,0.00,,---,0.00,VWS V14.00,2013-02-16 20:21:00,
2013-02-16 13:23:00,39.6,12.9,0.00,SW,223,0.0,5.8,33,0.00,,---,0.00,VWS V14.00,2013-02-16 20:23:00,
2013-02-16 13:24:00,39.6,12.9,0.00,NW,311,4.0,4.0,33,0.00,,---,0.00,VWS V14.00,2013-02-16 20:24:00,
2013-02-16 13:26:00,39.6,12.9,0.00,SSE,155,5.8,5.8,33,0.00,,---,0.00,VWS V14.00,2013-02-16 20:26:00,
2013-02-16 13:28:00,39.7,13.0,0.00,ESE,113,0.0,3.6,33,0.00,,---,0.00,VWS V14.00,2013-02-16 20:28:00,
2013-02-16 13:30:00,39.7,13.0,0.00,WSW,242,0.0,0.0,33,0.00,,---,0.00,VWS V14.00,2013-02-16 20:30:00,
2013-02-16 13:31:00,39.7,13.0,0.00,SSE,159,3.1,3.1,33,0.00,,---,0.00,VWS V14.00,2013-02-16 20:31:00,
2013-02-16 13:33:00,39.7,13.0,0.00,SE,124,4.0,6.3,33,0.00,,---,0.00,VWS V14.00,2013-02-16 20:33:00,
2013-02-16 13:35:00,39.7,13.0,0.00,ESE,114,3.6,3.6,33,0.00,,---,0.00,VWS V14.00,2013-02-16 20:35:00,
2013-02-16 13:36:00,39.9,13.2,0.00,SSE,155,5.8,8.1,33,0.00,,---,0.00,VWS V14.00,2013-02-16 20:36:00,
2013-02-16 13:39:00,39.9,12.5,0.00,ESE,120,5.8,6.3,32,0.00,,---,0.00,VWS V14.00,2013-02-16 20:39:00,
2013-02-16 13:40:00,39.9,12.5,0.00,ESE,115,4.0,5.8,32,0.00,,---,0.00,VWS V14.00,2013-02-16 20:40:00,
2013-02-16 13:41:00,39.9,12.5,0.00,ESE,109,0.0,2.7,32,0.00,,---,0.00,VWS V14.00,2013-02-16 20:41:00,
2013-02-16 13:42:00,39.9,12.5,0.00,South,184,0.0,0.0,32,0.00,,---,0.00,VWS V14.00,2013-02-16 20:42:00,
2013-02-16 13:44:00,40.1,12.6,0.00,ESE,109,5.4,6.3,32,0.00,,---,0.00,VWS V14.00,2013-02-16 20:44:00,
2013-02-16 13:45:00,40.1,12.6,0.00,SW,229,6.3,6.3,32,0.00,,---,0.00,VWS V14.00,2013-02-16 20:45:00,
2013-02-16 13:47:00,40.1,11.9,0.00,ESE,120,4.0,10.5,31,0.00,,---,0.00,VWS V14.00,2013-02-16 20:47:00,
2013-02-16 13:49:00,40.1,12.6,0.00,SE,145,8.1,8.7,32,0.00,,---,0.00,VWS V14.00,2013-02-16 20:49:00,
2013-02-16 13:50:00,40.1,12.6,0.00,East,94,11.4,11.4,32,0.00,,---,0.00,VWS V14.00,2013-02-16 20:50:00,
2013-02-16 13:52:00,40.1,11.9,0.00,SSE,153,7.6,7.6,31,0.00,,---,0.00,VWS V14.00,2013-02-16 20:52:00,
2013-02-16 13:54:00,40.1,11.9,0.00,SE,125,3.6,11.9,31,0.00,,---,0.00,VWS V14.00,2013-02-16 20:54:00,
2013-02-16 13:55:00,40.1,11.9,0.00,ESE,107,6.7,6.7,31,0.00,,---,0.00,VWS V14.00,2013-02-16 20:55:00,
2013-02-16 13:57:00,40.1,12.6,0.00,ENE,73,5.4,6.7,32,0.00,,---,0.00,VWS V14.00,2013-02-16 20:57:00,
2013-02-16 14:00:00,40.1,12.6,0.00,SE,139,6.3,6.3,32,0.00,,---,0.00,VWS V14.00,2013-02-16 21:00:00,
2013-02-16 14:02:00,40.3,12.8,0.00,East,86,7.6,7.6,32,0.00,,---,0.00,VWS V14.00,2013-02-16 21:02:00,
2013-02-16 14:05:00,40.3,12.8,0.00,ESE,110,2.7,2.7,32,0.00,,---,0.00,VWS V14.00,2013-02-16 21:05:00,
2013-02-16 14:07:00,40.3,12.8,0.00,East,80,8.7,8.7,32,0.00,,---,0.00,VWS V14.00,2013-02-16 21:07:00,
2013-02-16 14:08:00,40.3,12.8,0.00,East,92,7.6,8.7,32,0.00,,---,0.00,VWS V14.00,2013-02-16 21:08:00,
2013-02-16 14:10:00,40.3,12.8,0.00,NE,53,3.1,6.3,32,0.00,,---,0.00,VWS V14.00,2013-02-16 21:10:00,
2013-02-16 14:12:00,40.3,12.8,0.00,SE,140,3.1,7.6,32,0.00,,---,0.00,VWS V14.00,2013-02-16 21:12:00,
2013-02-16 14:13:00,40.1,12.6,0.00,ESE,120,7.6,7.6,32,0.00,,---,0.00,VWS V14.00,2013-02-16 21:13:00,
2013-02-16 14:15:00,40.1,12.6,0.00,East,83,6.7,6.7,32,0.00,,---,0.00,VWS V14.00,2013-02-16 21:15:00,
2013-02-16 14:17:00,40.1,12.6,0.00,ENE,66,5.4,10.5,32,0.00,,---,0.00,VWS V14.00,2013-02-16 21:17:00,
2013-02-16 14:18:00,40.1,12.6,0.00,ENE,74,5.4,10.5,32,0.00,,---,0.00,VWS V14.00,2013-02-16 21:18:00,
2013-02-16 14:20:00,40.1,12.6,0.00,NE,49,10.1,10.1,32,0.00,,---,0.00,VWS V14.00,2013-02-16 21:20:00,
2013-02-16 14:22:00,40.1,12.6,0.00,East,93,5.8,7.6,32,0.00,,---,0.00,VWS V14.00,2013-02-16 21:22:00,
2013-02-16 14:23:00,40.1,12.6,0.00,East,100,3.6,5.8,32,0.00,,---,0.00,VWS V14.00,2013-02-16 21:23:00,
2013-02-16 14:25:00,40.3,12.8,0.00,ENE,66,6.3,7.6,32,0.00,,---,0.00,VWS V14.00,2013-02-16 21:25:00,
2013-02-16 14:27:00,40.3,12.8,0.00,SSE,156,6.3,6.3,32,0.00,,---,0.00,VWS V14.00,2013-02-16 21:27:00,
2013-02-16 14:28:00,40.3,12.8,0.00,SE,137,7.6,7.6,32,0.00,,---,0.00,VWS V14.00,2013-02-16 21:28:00,
2013-02-16 14:30:00,40.3,12.8,0.00,ESE,105,6.3,8.1,32,0.00,,---,0.00,VWS V14.00,2013-02-16 21:30:00,
2013-02-16 14:32:00,40.3,12.8,0.00,ESE,118,5.4,7.6,32,0.00,,---,0.00,VWS V14.00,2013-02-16 21:32:00,
2013-02-16 14:33:00,40.5,12.9,0.00,East,79,3.6,4.0,32,0.00,,---,0.00,VWS V14.00,2013-02-16 21:33:00,
2013-02-16 14:35:00,40.5,12.9,0.00,SE,130,5.4,7.6,32,0.00,,---,0.00,VWS V14.00,2013-02-16 21:35:00,
2013-02-16 14:38:00,40.5,12.9,0.00,East,91,10.5,10.5,32,0.00,,---,0.00,VWS V14.00,2013-02-16 21:38:00,
2013-02-16 14:40:00,40.5,12.9,0.00,East,101,5.4,8.1,32,0.00,,---,0.00,VWS V14.00,2013-02-16 21:40:00,
2013-02-16 14:43:00,40.3,12.8,0.00,East,88,7.6,10.1,32,0.00,,---,0.00,VWS V14.00,2013-02-16 21:43:00,
2013-02-16 14:45:00,40.3,12.8,0.00,NNE,19,8.7,8.7,32,0.00,,---,0.00,VWS V14.00,2013-02-16 21:45:00,
2013-02-16 14:48:00,40.1,12.6,0.00,South,173,5.8,8.7,32,0.00,,---,0.00,VWS V14.00,2013-02-16 21:48:00,
2013-02-16 14:50:00,39.9,12.5,0.00,ESE,103,5.4,8.7,32,0.00,,---,0.00,VWS V14.00,2013-02-16 21:50:00,
2013-02-16 14:51:00,39.9,12.5,0.00,ESE,114,5.4,8.7,32,0.00,,---,0.00,VWS V14.00,2013-02-16 21:51:00,
2013-02-16 14:53:00,39.9,12.5,0.00,ESE,109,8.1,8.1,32,0.00,,---,0.00,VWS V14.00,2013-02-16 21:53:00,
2013-02-16 14:55:00,39.9,11.8,0.00,ESE,117,10.5,11.0,31,0.00,,---,0.00,VWS V14.00,2013-02-16 21:55:00,
2013-02-16 14:58:00,39.9,11.8,0.00,SE,129,6.3,8.3,31,0.00,,---,0.00,VWS V14.00,2013-02-16 21:58:00,
2013-02-16 15:00:00,39.9,12.5,0.00,East,81,10.5,10.5,32,0.00,,---,0.00,VWS V14.00,2013-02-16 22:00:00,
2013-02-16 15:03:00,39.9,11.8,0.00,ESE,118,5.8,5.8,31,0.00,,---,0.00,VWS V14.00,2013-02-16 22:03:00,
2013-02-16 15:06:00,39.9,12.5,0.00,ESE,114,4.0,5.4,32,0.00,,---,0.00,VWS V14.00,2013-02-16 22:06:00,
2013-02-16 15:08:00,39.9,11.8,0.00,SE,138,5.8,5.8,31,0.00,,---,0.00,VWS V14.00,2013-02-16 22:08:00,
2013-02-16 15:11:00,39.9,11.8,0.00,SW,221,7.6,7.6,31,0.00,,---,0.00,VWS V14.00,2013-02-16 22:11:00,
2013-02-16 15:13:00,39.9,11.8,0.00,SE,142,5.8,5.8,31,0.00,,---,0.00,VWS V14.00,2013-02-16 22:13:00,
2013-02-16 15:14:00,39.9,11.8,0.00,South,171,3.1,5.8,31,0.00,,---,0.00,VWS V14.00,2013-02-16 22:14:00,
2013-02-16 15:16:00,39.9,11.8,0.00,NW,317,3.1,8.3,31,0.00,,---,0.00,VWS V14.00,2013-02-16 22:16:00,
2013-02-16 15:18:00,40.1,11.9,0.00,ESE,106,5.4,8.7,31,0.00,,---,0.00,VWS V14.00,2013-02-16 22:18:00,
2013-02-16 15:19:00,40.1,11.9,0.00,ESE,107,4.0,8.7,31,0.00,,---,0.00,VWS V14.00,2013-02-16 22:19:00,
2013-02-16 15:21:00,40.1,11.9,0.00,SSE,150,5.4,6.3,31,0.00,,---,0.00,VWS V14.00,2013-02-16 22:21:00,
2013-02-16 15:23:00,40.1,11.9,0.00,ESE,111,3.1,3.1,31,0.00,,---,0.00,VWS V14.00,2013-02-16 22:23:00,
2013-02-16 15:24:00,40.1,11.9,0.00,SE,143,3.1,3.6,31,0.00,,---,0.00,VWS V14.00,2013-02-16 22:24:00,
2013-02-16 15:26:00,40.3,12.8,0.00,ENE,62,0.0,0.0,32,0.00,,---,0.00,VWS V14.00,2013-02-16 22:26:00,
2013-02-16 15:28:00,40.3,12.8,0.00,NE,49,3.1,5.4,32,0.00,,---,0.00,VWS V14.00,2013-02-16 22:28:00,
2013-02-16 15:29:00,40.3,12.8,0.00,East,87,2.7,3.6,32,0.00,,---,0.00,VWS V14.00,2013-02-16 22:29:00,
2013-02-16 15:31:00,40.3,12.8,0.00,East,90,4.9,4.9,32,0.00,,---,0.00,VWS V14.00,2013-02-16 22:31:00,
2013-02-16 15:34:00,40.5,12.9,0.00,SE,126,6.7,6.7,32,0.00,,---,0.00,VWS V14.00,2013-02-16 22:34:00,
2013-02-16 15:36:00,40.5,12.9,0.00,SE,140,3.6,5.8,32,0.00,,---,0.00,VWS V14.00,2013-02-16 22:36:00,
2013-02-16 15:37:00,40.5,12.9,0.00,East,95,5.4,5.8,32,0.00,,---,0.00,VWS V14.00,2013-02-16 22:37:00,
2013-02-16 15:39:00,40.5,12.9,0.00,SE,126,4.0,8.1,32,0.00,,---,0.00,VWS V14.00,2013-02-16 22:39:00,
2013-02-16 15:41:00,40.5,12.2,0.00,SE,136,6.3,6.3,31,0.00,,---,0.00,VWS V14.00,2013-02-16 22:41:00,
2013-02-16 15:42:00,40.3,12.1,0.00,ESE,114,8.1,8.1,31,0.00,,---,0.00,VWS V14.00,2013-02-16 22:42:00,
2013-02-16 15:44:00,40.3,12.1,0.00,SE,126,3.1,6.7,31,0.00,,---,0.00,VWS V14.00,2013-02-16 22:44:00,
2013-02-16 15:46:00,40.3,12.1,0.00,ESE,118,6.3,6.3,31,0.00,,---,0.00,VWS V14.00,2013-02-16 22:46:00,
2013-02-16 15:47:00,40.3,12.1,0.00,ESE,111,8.7,10.1,31,0.00,,---,0.00,VWS V14.00,2013-02-16 22:47:00,
2013-02-16 15:49:00,40.1,11.9,0.00,East,94,6.7,6.7,31,0.00,,---,0.00,VWS V14.00,2013-02-16 22:49:00,
2013-02-16 15:51:00,39.9,11.8,0.00,East,94,7.6,7.6,31,0.00,,---,0.00,VWS V14.00,2013-02-16 22:51:00,
2013-02-16 15:52:00,39.9,11.8,0.00,SE,136,11.0,11.0,31,0.00,,---,0.00,VWS V14.00,2013-02-16 22:52:00,
2013-02-16 15:54:00,39.9,11.8,0.00,ESE,111,8.7,8.7,31,0.00,,---,0.00,VWS V14.00,2013-02-16 22:54:00,
2013-02-16 15:56:00,39.7,11.6,0.00,East,86,6.3,6.3,31,0.00,,---,0.00,VWS V14.00,2013-02-16 22:56:00,
2013-02-16 15:57:00,39.7,11.6,0.00,East,101,3.1,4.0,31,0.00,,---,0.00,VWS V14.00,2013-02-16 22:57:00,
2013-02-16 15:59:00,39.7,11.6,0.00,East,97,8.7,8.7,31,0.00,,---,0.00,VWS V14.00,2013-02-16 22:59:00,
2013-02-16 16:00:00,39.6,11.4,0.00,ESE,102,5.8,10.5,31,0.00,,---,0.00,VWS V14.00,2013-02-16 23:00:00,
2013-02-16 16:01:00,39.6,11.4,0.00,ENE,63,11.0,11.0,31,0.00,,---,0.00,VWS V14.00,2013-02-16 23:01:00,
2013-02-16 16:03:00,39.4,11.3,0.00,SE,137,8.7,10.1,31,0.00,,---,0.00,VWS V14.00,2013-02-16 23:03:00,
2013-02-16 16:04:00,39.4,11.3,0.00,ESE,113,8.1,12.3,31,0.00,,---,0.00,VWS V14.00,2013-02-16 23:04:00,
2013-02-16 16:05:00,39.4,11.3,0.00,ESE,105,4.0,12.3,31,0.00,,---,0.00,VWS V14.00,2013-02-16 23:05:00,
2013-02-16 16:07:00,39.2,11.1,0.00,East,88,6.3,6.3,31,0.00,,---,0.00,VWS V14.00,2013-02-16 23:07:00,
2013-02-16 16:08:00,39.2,11.1,0.00,ESE,114,6.3,6.3,31,0.00,,---,0.00,VWS V14.00,2013-02-16 23:08:00,
2013-02-16 16:09:00,39.0,11.0,0.00,ESE,103,9.6,9.6,31,0.00,,---,0.00,VWS V14.00,2013-02-16 23:09:00,
2013-02-16 16:10:00,39.0,11.0,0.00,ESE,103,9.6,9.6,31,0.00,,---,0.00,VWS V14.00,2013-02-16 23:10:00,
2013-02-16 16:12:00,39.0,11.0,0.00,ENE,69,4.0,4.0,31,0.00,,---,0.00,VWS V14.00,2013-02-16 23:12:00,
2013-02-16 16:13:00,38.8,10.8,0.00,ESE,109,4.0,6.3,31,0.00,,---,0.00,VWS V14.00,2013-02-16 23:13:00,
2013-02-16 16:14:00,38.8,10.8,0.00,ESE,112,7.2,7.2,31,0.00,,---,0.00,VWS V14.00,2013-02-16 23:14:00,
2013-02-16 16:15:00,38.8,10.8,0.00,ESE,107,4.0,7.2,31,0.00,,---,0.00,VWS V14.00,2013-02-16 23:15:00,
2013-02-16 16:17:00,38.8,10.8,0.00,East,93,3.1,3.6,31,0.00,,---,0.00,VWS V14.00,2013-02-16 23:17:00,
2013-02-16 16:18:00,38.8,10.8,0.00,SE,124,5.4,10.5,31,0.00,,---,0.00,VWS V14.00,2013-02-16 23:18:00,
2013-02-16 16:19:00,38.8,10.8,0.00,East,83,6.3,8.7,31,0.00,,---,0.00,VWS V14.00,2013-02-16 23:19:00,
2013-02-16 16:20:00,38.7,10.6,0.00,East,83,4.5,8.7,31,0.00,,---,0.00,VWS V14.00,2013-02-16 23:20:00,
2013-02-16 16:22:00,38.7,10.6,0.00,East,95,8.3,8.3,31,0.00,,---,0.00,VWS V14.00,2013-02-16 23:22:00,
2013-02-16 16:23:00,38.7,10.6,0.00,East,93,3.6,4.9,31,0.00,,---,0.00,VWS V14.00,2013-02-16 23:23:00,
2013-02-16 16:24:00,38.7,10.6,0.00,ESE,122,5.8,6.3,31,0.00,,---,0.00,VWS V14.00,2013-02-16 23:24:00,
2013-02-16 16:25:00,38.7,10.6,0.00,ESE,109,4.0,6.3,31,0.00,,---,0.00,VWS V14.00,2013-02-16 23:25:00,
2013-02-16 16:27:00,38.7,10.6,0.00,ESE,117,3.6,5.8,31,0.00,,---,0.00,VWS V14.00,2013-02-16 23:27:00,
2013-02-16 16:28:00,38.7,10.6,0.00,ENE,69,4.0,7.6,31,0.00,,---,0.00,VWS V14.00,2013-02-16 23:28:00,
2013-02-16 16:30:00,38.5,10.5,0.00,SE,135,5.4,5.4,31,0.00,,---,0.00,VWS V14.00,2013-02-16 23:30:00,
2013-02-16 16:32:00,38.5,10.5,0.00,ESE,103,6.3,6.3,31,0.00,,---,0.00,VWS V14.00,2013-02-16 23:32:00,
2013-02-16 16:33:00,38.5,10.5,0.00,ESE,113,5.8,5.8,31,0.00,,---,0.00,VWS V14.00,2013-02-16 23:33:00,
2013-02-16 16:35:00,38.5,10.5,0.00,SSE,156,7.2,7.2,31,0.00,,---,0.00,VWS V14.00,2013-02-16 23:35:00,
2013-02-16 16:38:00,38.3,10.3,0.00,NE,39,6.3,6.3,31,0.00,,---,0.00,VWS V14.00,2013-02-16 23:38:00,
2013-02-16 16:40:00,38.3,10.3,0.00,ESE,117,4.9,10.5,31,0.00,,---,0.00,VWS V14.00,2013-02-16 23:40:00,
2013-02-16 16:43:00,38.1,10.2,0.00,ESE,113,3.1,3.6,31,0.00,,---,0.00,VWS V14.00,2013-02-16 23:43:00,
2013-02-16 16:45:00,38.1,10.2,0.00,ESE,120,2.2,3.1,31,0.00,,---,0.00,VWS V14.00,2013-02-16 23:45:00,
2013-02-16 16:48:00,37.9,10.0,0.00,East,95,5.4,6.3,31,0.00,,---,0.00,VWS V14.00,2013-02-16 23:48:00,
2013-02-16 16:50:00,37.9,10.0,0.00,ESE,120,4.9,5.4,31,0.00,,---,0.00,VWS V14.00,2013-02-16 23:50:00,
2013-02-16 16:53:00,37.8,9.9,0.00,ESE,112,2.2,3.1,31,0.00,,---,0.00,VWS V14.00,2013-02-16 23:53:00,
2013-02-16 16:55:00,37.8,9.9,0.00,SE,126,3.1,4.0,31,0.00,,---,0.00,VWS V14.00,2013-02-16 23:55:00,
2013-02-16 16:58:00,37.6,9.7,0.00,ENE,76,3.1,5.8,31,0.00,,---,0.00,VWS V14.00,2013-02-16 23:58:00,
2013-02-16 17:00:00,37.6,9.7,0.00,SW,224,3.1,3.1,31,0.00,,---,0.00,VWS V14.00,2013-02-17 00:00:00,
2013-02-16 17:03:00,37.4,9.5,0.00,ESE,117,0.0,0.0,31,0.00,,---,0.00,VWS V14.00,2013-02-17 00:03:00,
2013-02-16 17:05:00,37.2,10.1,0.00,ESE,113,2.2,2.2,32,0.00,,---,0.00,VWS V14.00,2013-02-17 00:05:00,
2013-02-16 17:08:00,37.0,9.9,0.00,ESE,116,0.0,0.0,32,0.00,,---,0.00,VWS V14.00,2013-02-17 00:08:00,
2013-02-16 17:10:00,37.0,9.9,0.00,NNE,13,0.0,0.0,32,0.00,,---,0.00,VWS V14.00,2013-02-17 00:10:00,
2013-02-16 17:13:00,36.9,9.8,0.00,NNE,24,0.0,0.0,32,0.00,,---,0.00,VWS V14.00,2013-02-17 00:13:00,
2013-02-16 17:14:00,36.9,9.8,0.00,East,93,3.1,3.1,32,0.00,,---,0.00,VWS V14.00,2013-02-17 00:14:00,
2013-02-16 17:15:00,36.9,9.8,0.00,East,89,0.0,0.0,32,0.00,,---,0.00,VWS V14.00,2013-02-17 00:15:00,
2013-02-16 17:16:00,36.7,9.6,0.00,WNW,292,2.2,2.2,32,0.00,,---,0.00,VWS V14.00,2013-02-17 00:16:00,
2013-02-16 17:18:00,36.7,9.6,0.00,WNW,292,0.0,0.0,32,0.00,,---,0.00,VWS V14.00,2013-02-17 00:18:00,
2013-02-16 17:19:00,36.7,9.6,0.00,WNW,292,0.0,0.0,32,0.00,,---,0.00,VWS V14.00,2013-02-17 00:19:00,
2013-02-16 17:20:00,36.5,9.5,0.00,NW,310,0.0,0.0,32,0.00,,---,0.00,VWS V14.00,2013-02-17 00:20:00,
2013-02-16 17:21:00,36.5,9.5,0.00,NW,310,0.0,0.0,32,0.00,,---,0.00,VWS V14.00,2013-02-17 00:21:00,
2013-02-16 17:23:00,36.3,9.3,0.00,SE,125,0.0,3.1,32,0.00,,---,0.00,VWS V14.00,2013-02-17 00:23:00,
2013-02-16 17:24:00,36.3,9.3,0.00,SE,124,2.7,3.6,32,0.00,,---,0.00,VWS V14.00,2013-02-17 00:24:00,
2013-02-16 17:25:00,36.1,9.1,0.00,SE,124,0.0,0.0,32,0.00,,---,0.00,VWS V14.00,2013-02-17 00:25:00,
2013-02-16 17:26:00,36.1,9.1,0.00,SE,124,0.0,0.0,32,0.00,,---,0.00,VWS V14.00,2013-02-17 00:26:00,
2013-02-16 17:28:00,36.1,9.1,0.00,East,97,0.0,0.0,32,0.00,,---,0.00,VWS V14.00,2013-02-17 00:28:00,
2013-02-16 17:29:00,36.1,9.1,0.00,East,97,0.0,0.0,32,0.00,,---,0.00,VWS V14.00,2013-02-17 00:29:00,
2013-02-16 17:31:00,36.0,9.0,0.00,East,98,0.0,0.0,32,0.00,,---,0.00,VWS V14.00,2013-02-17 00:31:00,
2013-02-16 17:34:00,35.8,8.8,0.00,West,259,0.0,0.0,32,0.00,,---,0.00,VWS V14.00,2013-02-17 00:34:00,
2013-02-16 17:36:00,35.4,8.5,0.00,South,186,0.0,0.0,32,0.00,,---,0.00,VWS V14.00,2013-02-17 00:36:00,
2013-02-16 17:39:00,35.4,8.5,0.00,NW,310,2.7,2.7,32,0.00,,---,0.00,VWS V14.00,2013-02-17 00:39:00,
2013-02-16 17:41:00,35.1,8.2,0.00,SE,127,3.1,3.1,32,0.00,,---,0.00,VWS V14.00,2013-02-17 00:41:00,
2013-02-16 17:44:00,34.9,8.0,0.00,NW,306,2.7,2.7,32,0.00,,---,0.00,VWS V14.00,2013-02-17 00:44:00,
2013-02-16 17:46:00,34.9,8.0,0.00,NW,318,0.0,0.0,32,0.00,,---,0.00,VWS V14.00,2013-02-17 00:46:00,
2013-02-16 17:49:00,34.5,7.7,0.00,NW,318,0.0,0.0,32,0.00,,---,0.00,VWS V14.00,2013-02-17 00:49:00,
2013-02-16 17:51:00,34.5,7.7,0.00,South,189,0.0,3.6,32,0.00,,---,0.00,VWS V14.00,2013-02-17 00:51:00,
2013-02-16 17:54:00,34.3,7.6,0.00,SSW,210,0.0,0.0,32,0.00,,---,0.00,VWS V14.00,2013-02-17 00:54:00,
2013-02-16 17:56:00,34.2,7.4,0.00,SSW,210,0.0,0.0,32,0.00,,---,0.00,VWS V14.00,2013-02-17 00:56:00,
2013-02-16 17:59:00,34.0,7.2,0.00,West,265,0.0,3.1,32,0.00,,---,0.00,VWS V14.00,2013-02-17 00:59:00,
2013-02-16 18:01:00,33.8,7.1,0.00,West,265,0.0,0.0,32,0.00,,---,0.00,VWS V14.00,2013-02-17 01:01:00,
2013-02-16 18:02:00,33.8,7.1,0.00,West,265,0.0,0.0,32,0.00,,---,0.00,VWS V14.00,2013-02-17 01:02:00,
2013-02-16 18:04:00,33.6,7.6,0.00,WSW,239,0.0,0.0,33,0.00,,---,0.00,VWS V14.00,2013-02-17 01:04:00,
2013-02-16 18:06:00,33.6,7.6,0.00,SW,222,0.0,0.0,33,0.00,,---,0.00,VWS V14.00,2013-02-17 01:06:00,
2013-02-16 18:07:00,33.6,7.6,0.00,SW,222,0.0,0.0,33,0.00,,---,0.00,VWS V14.00,2013-02-17 01:07:00,
2013-02-16 18:09:00,33.4,7.4,0.00,WSW,237,0.0,0.0,33,0.00,,---,0.00,VWS V14.00,2013-02-17 01:09:00,
2013-02-16 18:11:00,33.3,7.3,0.00,WNW,295,2.2,2.2,33,0.00,,---,0.00,VWS V14.00,2013-02-17 01:11:00,
2013-02-16 18:12:00,33.3,7.3,0.00,NW,313,3.1,3.1,33,0.00,,---,0.00,VWS V14.00,2013-02-17 01:12:00,
2013-02-16 18:14:00,33.1,7.1,0.00,SE,140,2.2,2.2,33,0.00,,---,0.00,VWS V14.00,2013-02-17 01:14:00,
2013-02-16 18:16:00,33.1,7.1,0.00,SW,216,0.0,0.0,33,0.00,,---,0.00,VWS V14.00,2013-02-17 01:16:00,
2013-02-16 18:17:00,32.9,7.0,0.00,SW,216,0.0,0.0,33,0.00,,---,0.00,VWS V14.00,2013-02-17 01:17:00,
2013-02-16 18:19:00,32.7,6.8,0.00,WSW,248,0.0,0.0,33,0.00,,---,0.00,VWS V14.00,2013-02-17 01:19:00,
2013-02-16 18:21:00,32.7,6.8,0.00,WSW,248,0.0,0.0,33,0.00,,---,0.00,VWS V14.00,2013-02-17 01:21:00,
2013-02-16 18:22:00,32.7,6.8,0.00,WSW,248,0.0,0.0,33,0.00,,---,0.00,VWS V14.00,2013-02-17 01:22:00,
2013-02-16 18:24:00,32.5,6.6,0.00,WSW,248,0.0,0.0,33,0.00,,---,0.00,VWS V14.00,2013-02-17 01:24:00,
2013-02-16 18:26:00,32.4,6.5,0.00,WSW,249,0.0,0.0,33,0.00,,---,0.00,VWS V14.00,2013-02-17 01:26:00,
2013-02-16 18:27:00,32.4,6.5,0.00,WSW,249,0.0,0.0,33,0.00,,---,0.00,VWS V14.00,2013-02-17 01:27:00,
2013-02-16 18:29:00,32.2,6.3,0.00,WNW,287,2.7,2.7,33,0.00,,---,0.00,VWS V14.00,2013-02-17 01:29:00,
2013-02-16 18:32:00,32.0,6.2,0.00,SW,225,0.0,2.7,33,0.00,,---,0.00,VWS V14.00,2013-02-17 01:32:00,
2013-02-16 18:34:00,32.0,6.2,0.00,SW,225,0.0,0.0,33,0.00,,---,0.00,VWS V14.00,2013-02-17 01:34:00,
2013-02-16 18:35:00,32.0,6.2,0.00,SW,225,0.0,0.0,33,0.00,,---,0.00,VWS V14.00,2013-02-17 01:35:00,
2013-02-16 18:37:00,31.8,6.0,0.00,SW,225,0.0,0.0,33,0.00,,---,0.00,VWS V14.00,2013-02-17 01:37:00,
2013-02-16 18:38:00,31.6,5.8,0.00,SW,225,0.0,0.0,33,0.00,,---,0.00,VWS V14.00,2013-02-17 01:38:00,
2013-02-16 18:40:00,31.6,5.8,0.00,SW,225,0.0,0.0,33,0.00,,---,0.00,VWS V14.00,2013-02-17 01:40:00,
2013-02-16 18:42:00,31.5,5.7,0.00,South,191,0.0,0.0,33,0.00,,---,0.00,VWS V14.00,2013-02-17 01:42:00,
2013-02-16 18:43:00,31.3,5.5,0.00,South,191,0.0,0.0,33,0.00,,---,0.00,VWS V14.00,2013-02-17 01:43:00,
2013-02-16 18:45:00,31.3,5.5,0.00,SSW,197,0.0,0.0,33,0.00,,---,0.00,VWS V14.00,2013-02-17 01:45:00,
2013-02-16 18:47:00,31.1,5.4,0.00,South,190,0.0,0.0,33,0.00,,---,0.00,VWS V14.00,2013-02-17 01:47:00,
2013-02-16 18:48:00,31.1,5.4,0.00,South,189,0.0,0.0,33,0.00,,---,0.00,VWS V14.00,2013-02-17 01:48:00,
2013-02-16 18:50:00,31.1,5.4,0.00,South,191,0.0,0.0,33,0.00,,---,0.00,VWS V14.00,2013-02-17 01:50:00,
2013-02-16 18:52:00,30.9,5.2,0.00,WSW,248,0.0,0.0,33,0.00,,---,0.00,VWS V14.00,2013-02-17 01:52:00,
2013-02-16 18:53:00,30.7,5.1,0.00,WSW,248,0.0,0.0,33,0.00,,---,0.00,VWS V14.00,2013-02-17 01:53:00,
2013-02-16 18:55:00,30.7,5.1,0.00,WSW,248,0.0,0.0,33,0.00,,---,0.00,VWS V14.00,2013-02-17 01:55:00,
2013-02-16 18:57:00,30.6,4.9,0.00,WSW,248,0.0,0.0,33,0.00,,---,0.00,VWS V14.00,2013-02-17 01:57:00,
2013-02-16 18:58:00,30.6,4.9,0.00,West,268,0.0,0.0,33,0.00,,---,0.00,VWS V14.00,2013-02-17 01:58:00,
2013-02-16 19:00:00,30.4,4.7,0.00,West,270,0.0,0.0,33,0.00,,---,0.00,VWS V14.00,2013-02-17 02:00:00,
2013-02-16 19:02:00,30.2,4.6,0.00,West,269,0.0,0.0,33,0.00,,---,0.00,VWS V14.00,2013-02-17 02:02:00,
2013-02-16 19:03:00,30.2,4.6,0.00,West,268,0.0,0.0,33,0.00,,---,0.00,VWS V14.00,2013-02-17 02:03:00,
2013-02-16 19:05:00,30.2,4.6,0.00,WNW,287,0.0,0.0,33,0.00,,---,0.00,VWS V14.00,2013-02-17 02:05:00,
2013-02-16 19:07:00,30.0,4.4,0.00,WNW,287,0.0,0.0,33,0.00,,---,0.00,VWS V14.00,2013-02-17 02:07:00,
2013-02-16 19:08:00,30.0,4.4,0.00,WNW,287,0.0,0.0,33,0.00,,---,0.00,VWS V14.00,2013-02-17 02:08:00,
2013-02-16 19:10:00,29.8,4.2,0.00,WNW,287,0.0,0.0,33,0.00,,---,0.00,VWS V14.00,2013-02-17 02:10:00,
2013-02-16 19:12:00,29.8,4.2,0.00,WNW,288,0.0,0.0,33,0.00,,---,0.00,VWS V14.00,2013-02-17 02:12:00,
2013-02-16 19:13:00,29.7,4.1,0.00,West,276,0.0,0.0,33,0.00,,---,0.00,VWS V14.00,2013-02-17 02:13:00,
2013-02-16 19:15:00,29.7,4.1,0.00,West,262,0.0,0.0,33,0.00,,---,0.00,VWS V14.00,2013-02-17 02:15:00,
2013-02-16 19:17:00,29.5,3.9,0.00,WSW,239,2.2,3.1,33,0.00,,---,0.00,VWS V14.00,2013-02-17 02:17:00,
2013-02-16 19:18:00,29.5,3.9,0.00,WSW,242,0.0,2.7,33,0.00,,---,0.00,VWS V14.00,2013-02-17 02:18:00,
2013-02-16 19:20:00,29.5,3.9,0.00,NW,305,3.1,3.1,33,0.00,,---,0.00,VWS V14.00,2013-02-17 02:20:00,
2013-02-16 19:22:00,29.3,3.8,0.00,WNW,300,0.0,0.0,33,0.00,,---,0.00,VWS V14.00,2013-02-17 02:22:00,
2013-02-16 19:23:00,29.3,3.8,0.00,WSW,258,0.0,0.0,33,0.00,,---,0.00,VWS V14.00,2013-02-17 02:23:00,
2013-02-16 19:25:00,29.3,3.8,0.00,WSW,257,0.0,0.0,33,0.00,,---,0.00,VWS V14.00,2013-02-17 02:25:00,
2013-02-16 19:28:00,29.1,3.6,0.00,NE,55,3.1,9.2,33,0.00,,---,0.00,VWS V14.00,2013-02-17 02:28:00,
2013-02-16 19:29:00,29.1,3.6,0.00,SSE,155,2.7,5.4,33,0.00,,---,0.00,VWS V14.00,2013-02-17 02:29:00,
2013-02-16 19:30:00,29.1,3.6,0.00,SE,135,3.6,3.6,33,0.00,,---,0.00,VWS V14.00,2013-02-17 02:30:00,
2013-02-16 19:33:00,28.9,3.5,0.00,East,88,2.7,3.6,33,0.00,,---,0.00,VWS V14.00,2013-02-17 02:33:00,
2013-02-16 19:34:00,28.9,3.5,0.00,East,98,5.4,5.4,33,0.00,,---,0.00,VWS V14.00,2013-02-17 02:34:00,
2013-02-16 19:35:00,28.9,3.5,0.00,ENE,74,2.2,4.0,33,0.00,,---,0.00,VWS V14.00,2013-02-17 02:35:00,
2013-02-16 19:38:00,28.8,3.3,0.00,East,81,2.7,4.0,33,0.00,,---,0.00,VWS V14.00,2013-02-17 02:38:00,
2013-02-16 19:39:00,28.8,3.3,0.00,WNW,285,4.9,4.9,33,0.00,,---,0.00,VWS V14.00,2013-02-17 02:39:00,
2013-02-16 19:40:00,28.8,3.3,0.00,SE,127,4.0,6.3,33,0.00,,---,0.00,VWS V14.00,2013-02-17 02:40:00,
2013-02-16 19:43:00,28.6,3.1,0.00,SE,138,3.6,5.4,33,0.00,,---,0.00,VWS V14.00,2013-02-17 02:43:00,
2013-02-16 19:44:00,28.6,3.1,0.00,ESE,113,3.1,6.3,33,0.00,,---,0.00,VWS V14.00,2013-02-17 02:44:00,
2013-02-16 19:45:00,28.6,3.1,0.00,ESE,107,0.0,2.2,33,0.00,,---,0.00,VWS V14.00,2013-02-17 02:45:00,
2013-02-16 19:46:00,28.6,3.1,0.00,ESE,107,0.0,2.2,33,0.00,,---,0.00,VWS V14.00,2013-02-17 02:46:00,
2013-02-16 19:48:00,28.6,3.1,0.00,ESE,104,7.6,7.6,33,0.00,,---,0.00,VWS V14.00,2013-02-17 02:48:00,
2013-02-16 19:49:00,28.6,3.1,0.00,ESE,115,4.9,6.3,33,0.00,,---,0.00,VWS V14.00,2013-02-17 02:49:00,
2013-02-16 19:50:00,28.4,3.6,0.00,ESE,115,4.0,4.0,34,0.00,,---,0.00,VWS V14.00,2013-02-17 02:50:00,
2013-02-16 19:51:00,28.4,3.6,0.00,ENE,71,5.8,5.8,34,0.00,,---,0.00,VWS V14.00,2013-02-17 02:51:00,
2013-02-16 19:53:00,28.4,3.6,0.00,ESE,118,5.4,5.4,34,0.00,,---,0.00,VWS V14.00,2013-02-17 02:53:00,
2013-02-16 19:54:00,28.4,3.6,0.00,South,184,4.0,5.4,34,0.00,,---,0.00,VWS V14.00,2013-02-17 02:54:00,
2013-02-16 19:55:00,28.4,3.6,0.00,SSW,194,0.0,0.0,34,0.00,,---,0.00,VWS V14.00,2013-02-17 02:55:00,
2013-02-16 19:56:00,28.4,3.6,0.00,South,183,3.1,3.1,34,0.00,,---,0.00,VWS V14.00,2013-02-17 02:56:00,
2013-02-16 19:58:00,28.2,3.5,0.00,WSW,240,2.2,2.2,34,0.00,,---,0.00,VWS V14.00,2013-02-17 02:58:00,
2013-02-16 19:59:00,28.2,3.5,0.00,WNW,297,0.0,2.7,34,0.00,,---,0.00,VWS V14.00,2013-02-17 02:59:00,
2013-02-16 20:00:00,28.2,3.5,0.00,WNW,297,0.0,0.0,34,0.00,,---,0.00,VWS V14.00,2013-02-17 03:00:00,
2013-02-16 20:01:00,28.2,3.5,0.00,WNW,297,0.0,0.0,34,0.00,,---,0.00,VWS V14.00,2013-02-17 03:01:00,
2013-02-16 20:03:00,28.2,3.5,0.00,WNW,297,0.0,0.0,34,0.00,,---,0.00,VWS V14.00,2013-02-17 03:03:00,
2013-02-16 20:05:00,28.0,3.3,0.00,WNW,297,0.0,0.0,34,0.00,,---,0.00,VWS V14.00,2013-02-17 03:05:00,
2013-02-16 20:06:00,28.0,3.3,0.00,East,101,0.0,0.0,34,0.00,,---,0.00,VWS V14.00,2013-02-17 03:06:00,
2013-02-16 20:08:00,27.9,3.2,0.00,SW,232,0.0,0.0,34,0.00,,---,0.00,VWS V14.00,2013-02-17 03:08:00,
2013-02-16 20:10:00,27.9,3.2,0.00,WSW,248,0.0,2.7,34,0.00,,---,0.00,VWS V14.00,2013-02-17 03:10:00,
2013-02-16 20:11:00,27.9,3.2,0.00,WSW,251,3.1,3.1,34,0.00,,---,0.00,VWS V14.00,2013-02-17 03:11:00,
2013-02-16 20:12:00,27.9,3.2,0.00,WSW,254,0.0,0.0,34,0.00,,---,0.00,VWS V14.00,2013-02-17 03:12:00,
2013-02-16 20:13:00,27.9,3.2,0.00,East,90,5.8,5.8,34,0.00,,---,0.00,VWS V14.00,2013-02-17 03:13:00,
2013-02-16 20:15:00,27.9,3.2,0.00,East,79,0.0,0.0,34,0.00,,---,0.00,VWS V14.00,2013-02-17 03:15:00,
2013-02-16 20:16:00,27.9,3.2,0.00,East,95,3.1,3.1,34,0.00,,---,0.00,VWS V14.00,2013-02-17 03:16:00,
2013-02-16 20:17:00,27.7,3.0,0.00,NW,306,3.6,3.6,34,0.00,,---,0.00,VWS V14.00,2013-02-17 03:17:00,
2013-02-16 20:18:00,27.7,2.3,0.00,NW,306,0.0,2.7,33,0.00,,---,0.00,VWS V14.00,2013-02-17 03:18:00,
2013-02-16 20:20:00,27.7,2.3,0.00,NNW,332,0.0,0.0,33,0.00,,---,0.00,VWS V14.00,2013-02-17 03:20:00,
2013-02-16 20:21:00,27.7,3.0,0.00,East,87,3.6,3.6,34,0.00,,---,0.00,VWS V14.00,2013-02-17 03:21:00,
2013-02-16 20:22:00,27.5,2.8,0.00,ESE,113,3.1,4.0,34,0.00,,---,0.00,VWS V14.00,2013-02-17 03:22:00,
2013-02-16 20:23:00,27.5,2.2,0.00,East,97,5.8,5.8,33,0.00,,---,0.00,VWS V14.00,2013-02-17 03:23:00,
2013-02-16 20:25:00,27.5,2.2,0.00,East,84,3.1,8.1,33,0.00,,---,0.00,VWS V14.00,2013-02-17 03:25:00,
2013-02-16 20:26:00,27.5,2.2,0.00,East,94,2.7,8.1,33,0.00,,---,0.00,VWS V14.00,2013-02-17 03:26:00,
2013-02-16 20:27:00,27.3,2.0,0.00,East,83,4.0,4.9,33,0.00,,---,0.00,VWS V14.00,2013-02-17 03:27:00,
2013-02-16 20:29:00,27.3,2.0,0.00,SE,140,0.0,0.0,33,0.00,,---,0.00,VWS V14.00,2013-02-17 03:29:00,
2013-02-16 20:30:00,27.3,2.0,0.00,SE,140,0.0,0.0,33,0.00,,---,0.00,VWS V14.00,2013-02-17 03:30:00,
2013-02-16 20:31:00,27.3,2.0,0.00,SE,140,0.0,0.0,33,0.00,,---,0.00,VWS V14.00,2013-02-17 03:31:00,
2013-02-16 20:32:00,27.3,2.0,0.00,SE,140,0.0,0.0,33,0.00,,---,0.00,VWS V14.00,2013-02-17 03:32:00,
2013-02-16 20:34:00,27.3,2.0,0.00,SE,140,0.0,0.0,33,0.00,,---,0.00,VWS V14.00,2013-02-17 03:34:00,
2013-02-16 20:35:00,27.1,1.9,0.00,WNW,302,2.7,2.7,33,0.00,,---,0.00,VWS V14.00,2013-02-17 03:35:00,
2013-02-16 20:36:00,27.1,1.9,0.00,NE,46,3.1,3.1,33,0.00,,---,0.00,VWS V14.00,2013-02-17 03:36:00,
2013-02-16 20:37:00,27.1,1.9,0.00,ESE,103,2.7,2.7,33,0.00,,---,0.00,VWS V14.00,2013-02-17 03:37:00,
2013-02-16 20:39:00,27.1,1.9,0.00,East,101,2.7,4.0,33,0.00,,---,0.00,VWS V14.00,2013-02-17 03:39:00,
2013-02-16 20:40:00,27.0,1.7,0.00,SSW,194,0.0,3.6,33,0.00,,---,0.00,VWS V14.00,2013-02-17 03:40:00,
2013-02-16 20:41:00,27.0,1.7,0.00,South,181,3.1,3.1,33,0.00,,---,0.00,VWS V14.00,2013-02-17 03:41:00,
2013-02-16 20:43:00,27.0,1.7,0.00,South,181,0.0,0.0,33,0.00,,---,0.00,VWS V14.00,2013-02-17 03:43:00,
2013-02-16 20:44:00,27.0,1.7,0.00,South,180,0.0,0.0,33,0.00,,---,0.00,VWS V14.00,2013-02-17 03:44:00,
2013-02-16 20:45:00,27.0,1.7,0.00,South,183,0.0,0.0,33,0.00,,---,0.00,VWS V14.00,2013-02-17 03:45:00,
2013-02-16 20:46:00,27.0,1.7,0.00,South,183,0.0,0.0,33,0.00,,---,0.00,VWS V14.00,2013-02-17 03:46:00,
2013-02-16 20:48:00,26.8,1.5,0.00,South,183,0.0,0.0,33,0.00,,---,0.00,VWS V14.00,2013-02-17 03:48:00,
2013-02-16 20:49:00,26.8,1.5,0.00,South,183,0.0,0.0,33,0.00,,---,0.00,VWS V14.00,2013-02-17 03:49:00,
2013-02-16 20:51:00,26.8,1.5,0.00,South,183,0.0,0.0,33,0.00,,---,0.00,VWS V14.00,2013-02-17 03:51:00,
2013-02-16 20:53:00,26.8,1.5,0.00,South,183,0.0,0.0,33,0.00,,---,0.00,VWS V14.00,2013-02-17 03:53:00,
2013-02-16 20:54:00,26.6,2.0,0.00,South,183,0.0,0.0,34,0.00,,---,0.00,VWS V14.00,2013-02-17 03:54:00,
2013-02-16 20:56:00,26.6,2.0,0.00,South,179,0.0,0.0,34,0.00,,---,0.00,VWS V14.00,2013-02-17 03:56:00,
2013-02-16 20:58:00,26.6,2.0,0.00,South,183,0.0,0.0,34,0.00,,---,0.00,VWS V14.00,2013-02-17 03:58:00,
2013-02-16 20:59:00,26.4,1.9,0.00,South,183,0.0,0.0,34,0.00,,---,0.00,VWS V14.00,2013-02-17 03:59:00,
2013-02-16 21:01:00,26.4,1.9,0.00,SE,133,0.0,0.0,34,0.00,,---,0.00,VWS V14.00,2013-02-17 04:01:00,
2013-02-16 21:03:00,26.4,1.9,0.00,ENE,66,2.7,4.0,34,0.00,,---,0.00,VWS V14.00,2013-02-17 04:03:00,
2013-02-16 21:04:00,26.2,1.7,0.00,ENE,59,5.4,5.4,34,0.00,,---,0.00,VWS V14.00,2013-02-17 04:04:00,
2013-02-16 21:06:00,26.2,1.7,0.00,ENE,59,3.6,6.3,34,0.00,,---,0.00,VWS V14.00,2013-02-17 04:06:00,
2013-02-16 21:08:00,26.2,1.7,0.00,ESE,110,0.0,0.0,34,0.00,,---,0.00,VWS V14.00,2013-02-17 04:08:00,
2013-02-16 21:09:00,26.2,1.7,0.00,ESE,109,2.7,3.1,34,0.00,,---,0.00,VWS V14.00,2013-02-17 04:09:00,
2013-02-16 21:11:00,26.2,1.7,0.00,ESE,102,2.2,5.4,34,0.00,,---,0.00,VWS V14.00,2013-02-17 04:11:00,
2013-02-16 21:13:00,26.1,1.5,0.00,ESE,106,4.0,4.0,34,0.00,,---,0.00,VWS V14.00,2013-02-17 04:13:00,
2013-02-16 21:14:00,26.1,1.5,0.00,East,82,3.1,5.8,34,0.00,,---,0.00,VWS V14.00,2013-02-17 04:14:00,
2013-02-16 21:16:00,26.1,1.5,0.00,East,90,4.0,4.0,34,0.00,,---,0.00,VWS V14.00,2013-02-17 04:16:00,
2013-02-16 21:18:00,26.1,1.5,0.00,North,10,0.0,0.0,34,0.00,,---,0.00,VWS V14.00,2013-02-17 04:18:00,
2013-02-16 21:19:00,26.1,1.5,0.00,East,90,3.1,3.1,34,0.00,,---,0.00,VWS V14.00,2013-02-17 04:19:00,
2013-02-16 21:21:00,26.1,1.5,0.00,ESE,115,0.0,0.0,34,0.00,,---,0.00,VWS V14.00,2013-02-17 04:21:00,
2013-02-16 21:23:00,26.1,1.5,0.00,ESE,104,0.0,0.0,34,0.00,,---,0.00,VWS V14.00,2013-02-17 04:23:00,
2013-02-16 21:24:00,26.1,1.5,0.00,NE,52,0.0,2.2,34,0.00,,---,0.00,VWS V14.00,2013-02-17 04:24:00,
2013-02-16 21:26:00,26.1,1.5,0.00,East,79,2.7,2.7,34,0.00,,---,0.00,VWS V14.00,2013-02-17 04:26:00,
2013-02-16 21:28:00,26.1,1.5,0.00,East,80,0.0,0.0,34,0.00,,---,0.00,VWS V14.00,2013-02-17 04:28:00,
2013-02-16 21:30:00,26.1,1.5,0.00,ENE,57,0.0,0.0,34,0.00,,---,0.00,VWS V14.00,2013-02-17 04:30:00,
2013-02-16 21:31:00,26.1,1.5,0.00,ENE,59,0.0,0.0,34,0.00,,---,0.00,VWS V14.00,2013-02-17 04:31:00,
2013-02-16 21:33:00,26.1,1.5,0.00,ENE,71,2.7,2.7,34,0.00,,---,0.00,VWS V14.00,2013-02-17 04:33:00,
2013-02-16 21:35:00,25.9,1.4,0.00,West,263,2.2,2.2,34,0.00,,---,0.00,VWS V14.00,2013-02-17 04:35:00,
2013-02-16 21:36:00,25.9,1.4,0.00,SW,228,0.0,3.1,34,0.00,,---,0.00,VWS V14.00,2013-02-17 04:36:00,
2013-02-16 21:37:00,25.9,1.4,0.00,SW,228,0.0,3.1,34,0.00,,---,0.00,VWS V14.00,2013-02-17 04:37:00,
2013-02-16 21:38:00,25.9,1.4,0.00,ESE,113,2.7,5.8,34,0.00,,---,0.00,VWS V14.00,2013-02-17 04:38:00,
2013-02-16 21:40:00,25.9,1.4,0.00,ENE,69,0.0,4.0,34,0.00,,---,0.00,VWS V14.00,2013-02-17 04:40:00,
2013-02-16 21:41:00,25.9,1.4,0.00,East,82,0.0,0.0,34,0.00,,---,0.00,VWS V14.00,2013-02-17 04:41:00,
2013-02-16 21:42:00,25.7,1.2,0.00,ESE,107,2.7,2.7,34,0.00,,---,0.00,VWS V14.00,2013-02-17 04:42:00,
2013-02-16 21:44:00,25.7,1.2,0.00,ESE,109,0.0,2.7,34,0.00,,---,0.00,VWS V14.00,2013-02-17 04:44:00,
2013-02-16 21:45:00,25.7,1.2,0.00,SE,130,5.4,5.8,34,0.00,,---,0.00,VWS V14.00,2013-02-17 04:45:00,
2013-02-16 21:46:00,25.7,1.2,0.00,NNW,338,4.0,4.0,34,0.00,,---,0.00,VWS V14.00,2013-02-17 04:46:00,
2013-02-16 21:47:00,25.7,0.6,0.00,NW,315,2.7,4.0,33,0.00,,---,0.00,VWS V14.00,2013-02-17 04:47:00,
2013-02-16 21:49:00,25.7,0.6,0.00,NW,306,0.0,0.0,33,0.00,,---,0.00,VWS V14.00,2013-02-17 04:49:00,
2013-02-16 21:50:00,25.7,0.6,0.00,NW,306,0.0,0.0,33,0.00,,---,0.00,VWS V14.00,2013-02-17 04:50:00,
2013-02-16 21:51:00,25.7,0.6,0.00,NW,306,0.0,0.0,33,0.00,,---,0.00,VWS V14.00,2013-02-17 04:51:00,
2013-02-16 21:52:00,25.7,0.6,0.00,NW,306,0.0,0.0,33,0.00,,---,0.00,VWS V14.00,2013-02-17 04:52:00,
2013-02-16 21:54:00,25.7,0.6,0.00,NNW,328,4.0,4.0,33,0.00,,---,0.00,VWS V14.00,2013-02-17 04:54:00,
2013-02-16 21:56:00,25.7,0.6,0.00,NNW,330,2.2,2.2,33,0.00,,---,0.00,VWS V14.00,2013-02-17 04:56:00,
2013-02-16 21:57:00,25.7,0.6,0.00,NNW,330,0.0,0.0,33,0.00,,---,0.00,VWS V14.00,2013-02-17 04:57:00,
2013-02-16 21:59:00,25.5,0.4,0.00,ENE,72,0.0,0.0,33,0.00,,---,0.00,VWS V14.00,2013-02-17 04:59:00,
2013-02-16 22:00:00,25.5,0.4,0.00,ENE,72,0.0,0.0,33,0.00,,---,0.00,VWS V14.00,2013-02-17 05:00:00,
2013-02-16 22:05:00,25.5,0.4,0.00,WSW,251,2.2,2.2,33,0.00,,---,0.00,VWS V14.00,2013-02-17 05:05:00,
2013-02-16 22:10:00,25.5,0.4,0.00,West,262,0.0,0.0,33,0.00,,---,0.00,VWS V14.00,2013-02-17 05:10:00,
2013-02-16 22:15:00,25.3,0.3,0.00,SE,128,0.0,0.0,33,0.00,,---,0.00,VWS V14.00,2013-02-17 05:15:00,
2013-02-16 22:20:00,25.3,0.3,0.00,South,170,0.0,0.0,33,0.00,,---,0.00,VWS V14.00,2013-02-17 05:20:00,
2013-02-16 22:21:00,25.3,0.3,0.00,WSW,249,0.0,0.0,33,0.00,,---,0.00,VWS V14.00,2013-02-17 05:21:00,
2013-02-16 22:25:00,25.3,0.3,0.00,WSW,250,0.0,0.0,33,0.00,,---,0.00,VWS V14.00,2013-02-17 05:25:00,
2013-02-16 22:26:00,25.3,0.3,0.00,WSW,250,0.0,0.0,33,0.00,,---,0.00,VWS V14.00,2013-02-17 05:26:00,
2013-02-16 22:30:00,25.2,0.1,0.00,WSW,250,0.0,0.0,33,0.00,,---,0.00,VWS V14.00,2013-02-17 05:30:00,
2013-02-16 22:31:00,25.2,0.1,0.00,SW,225,0.0,0.0,33,0.00,,---,0.00,VWS V14.00,2013-02-17 05:31:00,
2013-02-16 22:35:00,25.0,-0.1,0.00,West,261,0.0,0.0,33,0.00,,---,0.00,VWS V14.00,2013-02-17 05:35:00,
2013-02-16 22:36:00,25.0,-0.1,0.00,West,262,0.0,0.0,33,0.00,,---,0.00,VWS V14.00,2013-02-17 05:36:00,
2013-02-16 22:40:00,24.8,0.4,0.00,WNW,289,0.0,0.0,34,0.00,,---,0.00,VWS V14.00,2013-02-17 05:40:00,
2013-02-16 22:41:00,24.8,0.4,0.00,WNW,289,0.0,0.0,34,0.00,,---,0.00,VWS V14.00,2013-02-17 05:41:00,
2013-02-16 22:45:00,24.6,0.3,0.00,West,276,0.0,0.0,34,0.00,,---,0.00,VWS V14.00,2013-02-17 05:45:00,
2013-02-16 22:46:00,24.6,0.3,0.00,West,275,0.0,0.0,34,0.00,,---,0.00,VWS V14.00,2013-02-17 05:46:00,
2013-02-16 22:50:00,24.4,0.1,0.00,West,280,0.0,0.0,34,0.00,,---,0.00,VWS V14.00,2013-02-17 05:50:00,
2013-02-16 22:51:00,24.4,0.1,0.00,West,279,0.0,0.0,34,0.00,,---,0.00,VWS V14.00,2013-02-17 05:51:00,
2013-02-16 22:52:00,24.4,0.1,0.00,West,279,0.0,0.0,34,0.00,,---,0.00,VWS V14.00,2013-02-17 05:52:00,
2013-02-16 22:55:00,24.4,0.1,0.00,SSW,209,2.7,4.0,34,0.00,,---,0.00,VWS V14.00,2013-02-17 05:55:00,
2013-02-16 22:56:00,24.4,0.1,0.00,SSW,209,0.0,4.0,34,0.00,,---,0.00,VWS V14.00,2013-02-17 05:56:00,
2013-02-16 22:57:00,24.4,0.1,0.00,West,267,5.4,5.4,34,0.00,,---,0.00,VWS V14.00,2013-02-17 05:57:00,
2013-02-16 23:00:00,24.4,0.1,0.00,WSW,254,2.7,2.7,34,0.00,,---,0.00,VWS V14.00,2013-02-17 06:00:00,
2013-02-16 23:01:00,24.4,-0.5,0.00,South,185,2.7,4.0,33,0.00,,---,0.00,VWS V14.00,2013-02-17 06:01:00,
2013-02-16 23:02:00,24.4,-0.5,0.00,ENE,67,4.9,4.9,33,0.00,,---,0.00,VWS V14.00,2013-02-17 06:02:00,
2013-02-16 23:06:00,24.4,0.1,0.00,SE,125,0.0,4.0,34,0.00,,---,0.00,VWS V14.00,2013-02-17 06:06:00,
2013-02-16 23:07:00,24.4,0.1,0.00,South,185,0.0,0.0,34,0.00,,---,0.00,VWS V14.00,2013-02-17 06:07:00,
2013-02-16 23:11:00,24.4,-0.5,0.00,SE,137,4.0,4.0,33,0.00,,---,0.00,VWS V14.00,2013-02-17 06:11:00,
2013-02-16 23:12:00,24.4,-0.5,0.00,SE,137,0.0,4.0,33,0.00,,---,0.00,VWS V14.00,2013-02-17 06:12:00,
2013-02-16 23:16:00,24.3,-0.1,0.00,SE,141,0.0,0.0,34,0.00,,---,0.00,VWS V14.00,2013-02-17 06:16:00,
2013-02-16 23:17:00,24.3,-0.1,0.00,SE,141,0.0,0.0,34,0.00,,---,0.00,VWS V14.00,2013-02-17 06:17:00,
2013-02-16 23:21:00,24.3,-0.1,0.00,SE,146,0.0,0.0,34,0.00,,---,0.00,VWS V14.00,2013-02-17 06:21:00,
2013-02-16 23:22:00,24.3,-0.1,0.00,SE,146,0.0,0.0,34,0.00,,---,0.00,VWS V14.00,2013-02-17 06:22:00,
2013-02-16 23:27:00,24.3,-0.1,0.00,East,88,0.0,4.0,34,0.00,,---,0.00,VWS V14.00,2013-02-17 06:27:00,
2013-02-16 23:32:00,24.3,-0.7,0.00,SW,219,0.0,0.0,33,0.00,,---,0.00,VWS V14.00,2013-02-17 06:32:00,
2013-02-16 23:37:00,24.3,-0.1,0.00,West,268,3.1,5.8,34,0.00,,---,0.00,VWS V14.00,2013-02-17 06:37:00,
2013-02-16 23:42:00,24.4,0.1,0.00,East,84,4.0,5.4,34,0.00,,---,0.00,VWS V14.00,2013-02-17 06:42:00,
2013-02-16 23:47:00,24.4,0.1,0.00,East,99,5.4,9.6,34,0.00,,---,0.00,VWS V14.00,2013-02-17 06:47:00,
2013-02-16 23:52:00,24.4,0.1,0.00,ESE,114,4.5,5.8,34,0.00,,---,0.00,VWS V14.00,2013-02-17 06:52:00,
2013-02-16 23:57:00,24.6,0.3,0.00,ENE,61,3.6,6.7,34,0.00,,---,0.00,VWS V14.00,2013-02-17 06:57:00,